Wetterdaten: Mittwoch, 06.01.2010
Datum Zeit Temp. Innen Temp. Aussen UV X Diff Temp. Feuchte Inne Feuchte Auss Sonnenschein Luftdruck Regen ab 0,1 Wind Sonnenschein Windben
06.01.2010 00:00 9,1 C -4,1 C 0,0 UV-I 0,0 C 43 % 90 % 0 % 1000,8 hPa 0,0 l/m 1,9 km/h (1 Bft) 0 min 3,1 km/h (1 Bft)
06.01.2010 00:02 9,2 C -4,1 C 0,0 UV-I 0,0 C 43 % 90 % 0 % 1000,8 hPa 0,0 l/m 1,9 km/h (1 Bft) 0 min 3,1 km/h (1 Bft)
06.01.2010 00:06 9,2 C -4,1 C 0,0 UV-I 0,0 C 43 % 90 % 0 % 1000,8 hPa 0,0 l/m 1,7 km/h (1 Bft) 0 min 2,9 km/h (1 Bft)
06.01.2010 00:08 9,1 C -4,1 C 0,0 UV-I 0,0 C 43 % 90 % 0 % 1000,8 hPa 0,0 l/m 1,4 km/h (1 Bft) 0 min 0,0 km/h (0 Bft)
06.01.2010 00:14 9,2 C -4,1 C 0,0 UV-I 0,0 C 43 % 90 % 0 % 1000,4 hPa 0,0 l/m 1,4 km/h (1 Bft) 0 min 5,8 km/h (2 Bft)
06.01.2010 00:20 9,2 C -4,1 C 0,0 UV-I 0,0 C 43 % 90 % 0 % 1000,4 hPa 0,0 l/m 1,4 km/h (1 Bft) 0 min 3,1 km/h (1 Bft)
06.01.2010 00:22 9,2 C -4,1 C 0,0 UV-I 0,0 C 43 % 90 % 0 % 1000,4 hPa 0,0 l/m 1,2 km/h (1 Bft) 0 min 6,0 km/h (2 Bft)
06.01.2010 00:24 9,2 C -4,1 C 0,0 UV-I 0,0 C 43 % 90 % 0 % 1000,4 hPa 0,0 l/m 1,7 km/h (1 Bft) 0 min 5,3 km/h (1 Bft)
06.01.2010 00:30 9,2 C -4,1 C 0,0 UV-I 0,0 C 43 % 90 % 0 % 1000,4 hPa 0,0 l/m 3,4 km/h (1 Bft) 0 min 11,8 km/h (2 Bft)
06.01.2010 00:32 9,2 C -4,1 C 0,0 UV-I 0,0 C 42 % 90 % 0 % 1000,4 hPa 0,0 l/m 3,4 km/h (1 Bft) 0 min 11,8 km/h (2 Bft)
06.01.2010 00:34 9,2 C -4,1 C 0,0 UV-I 0,0 C 42 % 90 % 0 % 1000,4 hPa 0,0 l/m 3,6 km/h (1 Bft) 0 min 4,6 km/h (1 Bft)
06.01.2010 00:36 9,2 C -4,1 C 0,0 UV-I 0,0 C 42 % 90 % 0 % 1000,4 hPa 0,0 l/m 3,1 km/h (1 Bft) 0 min 0,0 km/h (0 Bft)
06.01.2010 00:38 9,2 C -4,2 C 0,0 UV-I 0,0 C 42 % 90 % 0 % 1000,4 hPa 0,0 l/m 2,6 km/h (1 Bft) 0 min 3,1 km/h (1 Bft)
06.01.2010 00:40 9,2 C -4,1 C 0,0 UV-I 0,0 C 42 % 90 % 0 % 1000,4 hPa 0,0 l/m 2,4 km/h (1 Bft) 0 min 4,6 km/h (1 Bft)
06.01.2010 00:42 9,2 C -4,1 C 0,0 UV-I 0,0 C 42 % 90 % 0 % 1000,4 hPa 0,0 l/m 2,6 km/h (1 Bft) 0 min 7,5 km/h (2 Bft)
06.01.2010 00:44 9,2 C -4,1 C 0,0 UV-I 0,0 C 42 % 90 % 0 % 1000,4 hPa 0,0 l/m 2,6 km/h (1 Bft) 0 min 0,0 km/h (0 Bft)
06.01.2010 00:46 9,2 C -4,1 C 0,0 UV-I 0,0 C 42 % 90 % 0 % 1000,4 hPa 0,0 l/m 2,4 km/h (1 Bft) 0 min 3,1 km/h (1 Bft)
06.01.2010 00:48 9,2 C -4,1 C 0,0 UV-I 0,0 C 42 % 90 % 0 % 1000,4 hPa 0,0 l/m 2,4 km/h (1 Bft) 0 min 0,0 km/h (0 Bft)
06.01.2010 00:50 9,2 C -4,1 C 0,0 UV-I 0,0 C 42 % 90 % 0 % 1000,4 hPa 0,0 l/m 2,2 km/h (1 Bft) 0 min 0,0 km/h (0 Bft)
06.01.2010 00:52 9,2 C -4,1 C 0,0 UV-I 0,0 C 42 % 90 % 0 % 1000,4 hPa 0,0 l/m 1,4 km/h (1 Bft) 0 min 0,0 km/h (0 Bft)
06.01.2010 01:00 9,2 C -4,1 C 0,0 UV-I 0,0 C 42 % 90 % 0 % 1000,1 hPa 0,0 l/m 0,5 km/h (0 Bft) 0 min 0,0 km/h (0 Bft)
06.01.2010 01:02 9,2 C -4,1 C 0,0 UV-I 0,0 C 42 % 90 % 0 % 1000,1 hPa 0,0 l/m 0,7 km/h (0 Bft) 0 min 2,4 km/h (1 Bft)
06.01.2010 01:04 9,2 C -4,1 C 0,0 UV-I 0,0 C 42 % 90 % 0 % 1000,1 hPa 0,0 l/m 0,7 km/h (0 Bft) 0 min 0,0 km/h (0 Bft)
06.01.2010 01:08 9,2 C -4,1 C 0,0 UV-I 0,0 C 42 % 90 % 0 % 1000,1 hPa 0,0 l/m 0,2 km/h (0 Bft) 0 min 0,0 km/h (0 Bft)
06.01.2010 01:10 9,2 C -4,3 C 0,0 UV-I 0,0 C 42 % 89 % 0 % 1000,1 hPa 0,0 l/m 0,2 km/h (0 Bft) 0 min 0,0 km/h (0 Bft)
06.01.2010 01:12 9,2 C -4,3 C 0,0 UV-I 0,0 C 42 % 89 % 0 % 1000,1 hPa 0,0 l/m 0,2 km/h (0 Bft) 0 min 0,0 km/h (0 Bft)
06.01.2010 01:14 9,2 C -4,3 C 0,0 UV-I 0,0 C 42 % 89 % 0 % 1000,1 hPa 0,0 l/m 0,2 km/h (0 Bft) 0 min 0,0 km/h (0 Bft)
06.01.2010 01:16 9,2 C -4,3 C 0,0 UV-I 0,0 C 42 % 89 % 0 % 1000,1 hPa 0,0 l/m 0,2 km/h (0 Bft) 0 min 0,0 km/h (0 Bft)
06.01.2010 01:18 9,2 C -4,3 C 0,0 UV-I 0,0 C 42 % 89 % 0 % 1000,1 hPa 0,0 l/m 0,0 km/h (0 Bft) 0 min 0,0 km/h (0 Bft)
06.01.2010 01:22 9,2 C -4,4 C 0,0 UV-I 0,0 C 42 % 89 % 0 % 1000,1 hPa 0,0 l/m 0,0 km/h (0 Bft) 0 min 0,0 km/h (0 Bft)
06.01.2010 01:24 9,2 C -4,4 C 0,0 UV-I 0,0 C 42 % 89 % 0 % 1000,1 hPa 0,0 l/m 0,0 km/h (0 Bft) 0 min 2,4 km/h (1 Bft)
06.01.2010 01:26 9,2 C -4,4 C 0,0 UV-I 0,0 C 42 % 89 % 0 % 1000,1 hPa 0,0 l/m 0,2 km/h (0 Bft) 0 min 0,0 km/h (0 Bft)
06.01.2010 01:32 9,1 C -4,4 C 0,0 UV-I 0,0 C 42 % 89 % 0 % 1000,1 hPa 0,0 l/m 0,2 km/h (0 Bft) 0 min 0,0 km/h (0 Bft)
06.01.2010 01:34 9,2 C -4,3 C 0,0 UV-I 0,0 C 42 % 89 % 0 % 999,9 hPa 0,0 l/m 0,2 km/h (0 Bft) 0 min 0,0 km/h (0 Bft)
06.01.2010 01:40 9,1 C -4,5 C 0,0 UV-I 0,0 C 42 % 89 % 0 % 999,9 hPa 0,0 l/m 0,0 km/h (0 Bft) 0 min 0,0 km/h (0 Bft)
06.01.2010 01:42 9,2 C -4,5 C 0,0 UV-I 0,0 C 42 % 89 % 0 % 999,9 hPa 0,0 l/m 0,0 km/h (0 Bft) 0 min 0,0 km/h (0 Bft)
06.01.2010 01:46 9,2 C -4,5 C 0,0 UV-I 0,0 C 42 % 89 % 0 % 999,9 hPa 0,0 l/m 0,0 km/h (0 Bft) 0 min 0,0 km/h (0 Bft)
06.01.2010 01:48 9,2 C -4,5 C 0,0 UV-I 0,0 C 42 % 89 % 0 % 999,9 hPa 0,0 l/m 0,0 km/h (0 Bft) 0 min 0,0 km/h (0 Bft)
06.01.2010 01:50 9,1 C -4,5 C 0,0 UV-I 0,0 C 42 % 89 % 0 % 999,9 hPa 0,0 l/m 0,0 km/h (0 Bft) 0 min 0,0 km/h (0 Bft)
06.01.2010 01:54 9,1 C -4,5 C 0,0 UV-I 0,0 C 42 % 89 % 0 % 999,8 hPa 0,0 l/m 0,0 km/h (0 Bft) 0 min 0,0 km/h (0 Bft)
06.01.2010 01:56 9,1 C -4,5 C 0,0 UV-I 0,0 C 42 % 89 % 0 % 999,8 hPa 0,0 l/m 0,0 km/h (0 Bft) 0 min 0,0 km/h (0 Bft)
06.01.2010 01:58 9,1 C -4,5 C 0,0 UV-I 0,0 C 42 % 89 % 0 % 999,8 hPa 0,0 l/m 0,0 km/h (0 Bft) 0 min 0,0 km/h (0 Bft)
06.01.2010 02:00 9,1 C -4,5 C 0,0 UV-I 0,0 C 42 % 89 % 0 % 999,8 hPa 0,0 l/m 0,0 km/h (0 Bft) 0 min 0,0 km/h (0 Bft)
06.01.2010 02:02 9,1 C -4,5 C 0,0 UV-I 0,0 C 42 % 89 % 0 % 999,8 hPa 0,0 l/m 0,0 km/h (0 Bft) 0 min 0,0 km/h (0 Bft)
06.01.2010 02:04 9,1 C -4,5 C 0,0 UV-I 0,0 C 42 % 89 % 0 % 999,8 hPa 0,0 l/m 0,0 km/h (0 Bft) 0 min 0,0 km/h (0 Bft)
06.01.2010 02:06 9,1 C -4,7 C 0,0 UV-I 0,0 C 42 % 89 % 0 % 999,8 hPa 0,0 l/m 0,0 km/h (0 Bft) 0 min 0,0 km/h (0 Bft)
06.01.2010 02:08 9,1 C -4,7 C 0,0 UV-I 0,0 C 42 % 89 % 0 % 999,8 hPa 0,0 l/m 0,0 km/h (0 Bft) 0 min 0,0 km/h (0 Bft)
06.01.2010 02:10 9,1 C -4,7 C 0,0 UV-I 0,0 C 42 % 89 % 0 % 999,8 hPa 0,0 l/m 0,5 km/h (0 Bft) 0 min 2,9 km/h (1 Bft)
06.01.2010 02:12 9,1 C -4,7 C 0,0 UV-I 0,0 C 42 % 89 % 0 % 999,8 hPa 0,0 l/m 1,2 km/h (1 Bft) 0 min 4,1 km/h (1 Bft)
06.01.2010 02:18 9,1 C -4,8 C 0,0 UV-I 0,0 C 42 % 89 % 0 % 1000,2 hPa 0,0 l/m 1,2 km/h (1 Bft) 0 min 2,9 km/h (1 Bft)
06.01.2010 02:22 9,1 C -4,8 C 0,0 UV-I 0,0 C 41 % 89 % 0 % 1000,2 hPa 0,0 l/m 0,5 km/h (0 Bft) 0 min 0,0 km/h (0 Bft)
06.01.2010 02:24 9,1 C -4,8 C 0,0 UV-I 0,0 C 41 % 89 % 0 % 1000,2 hPa 0,0 l/m 0,0 km/h (0 Bft) 0 min 0,0 km/h (0 Bft)
06.01.2010 02:26 9,1 C -4,9 C 0,0 UV-I 0,0 C 41 % 89 % 0 % 1000,2 hPa 0,0 l/m 0,2 km/h (0 Bft) 0 min 0,0 km/h (0 Bft)
06.01.2010 02:28 9,1 C -4,9 C 0,0 UV-I 0,0 C 41 % 89 % 0 % 1000,2 hPa 0,0 l/m 0,2 km/h (0 Bft) 0 min 0,0 km/h (0 Bft)
06.01.2010 02:30 9,1 C -4,9 C 0,0 UV-I 0,0 C 41 % 89 % 0 % 1000,2 hPa 0,0 l/m 0,2 km/h (0 Bft) 0 min 0,0 km/h (0 Bft)
06.01.2010 02:32 9,1 C -4,9 C 0,0 UV-I 0,0 C 41 % 89 % 0 % 1000,2 hPa 0,0 l/m 0,2 km/h (0 Bft) 0 min 0,0 km/h (0 Bft)
06.01.2010 02:34 9,1 C -4,9 C 0,0 UV-I 0,0 C 41 % 89 % 0 % 1000,6 hPa 0,0 l/m 0,2 km/h (0 Bft) 0 min 0,0 km/h (0 Bft)
06.01.2010 02:36 9,1 C -4,9 C 0,0 UV-I 0,0 C 41 % 89 % 0 % 1000,6 hPa 0,0 l/m 0,5 km/h (0 Bft) 0 min 3,1 km/h (1 Bft)
06.01.2010 02:38 9,1 C -4,9 C 0,0 UV-I 0,0 C 41 % 89 % 0 % 1000,6 hPa 0,0 l/m 0,5 km/h (0 Bft) 0 min 3,1 km/h (1 Bft)
06.01.2010 02:40 9,1 C -4,9 C 0,0 UV-I 0,0 C 41 % 89 % 0 % 1000,6 hPa 0,0 l/m 1,0 km/h (0 Bft) 0 min 4,8 km/h (1 Bft)
06.01.2010 02:42 9,1 C -4,9 C 0,0 UV-I 0,0 C 41 % 89 % 0 % 1000,6 hPa 0,0 l/m 1,2 km/h (1 Bft) 0 min 0,0 km/h (0 Bft)
06.01.2010 02:46 9,1 C -4,9 C 0,0 UV-I 0,0 C 41 % 89 % 0 % 1000,6 hPa 0,0 l/m 1,0 km/h (0 Bft) 0 min 0,0 km/h (0 Bft)
06.01.2010 02:52 8,9 C -5,0 C 0,0 UV-I 0,0 C 41 % 89 % 0 % 1000,6 hPa 0,0 l/m 0,2 km/h (0 Bft) 0 min 0,0 km/h (0 Bft)
06.01.2010 02:54 9,1 C -4,9 C 0,0 UV-I 0,0 C 41 % 89 % 0 % 1000,2 hPa 0,0 l/m 0,0 km/h (0 Bft) 0 min 0,0 km/h (0 Bft)
06.01.2010 02:56 9,1 C -4,9 C 0,0 UV-I 0,0 C 41 % 89 % 0 % 1000,2 hPa 0,0 l/m 0,0 km/h (0 Bft) 0 min 0,0 km/h (0 Bft)
06.01.2010 02:58 8,9 C -4,9 C 0,0 UV-I 0,0 C 41 % 89 % 0 % 1000,2 hPa 0,0 l/m 0,0 km/h (0 Bft) 0 min 0,0 km/h (0 Bft)
06.01.2010 03:00 9,1 C -4,9 C 0,0 UV-I 0,0 C 41 % 89 % 0 % 1000,2 hPa 0,0 l/m 0,0 km/h (0 Bft) 0 min 0,0 km/h (0 Bft)
06.01.2010 03:02 9,1 C -4,9 C 0,0 UV-I 0,0 C 41 % 89 % 0 % 1000,2 hPa 0,0 l/m 0,0 km/h (0 Bft) 0 min 0,0 km/h (0 Bft)
06.01.2010 03:04 9,0 C -5,1 C 0,0 UV-I 0,0 C 41 % 89 % 0 % 1000,2 hPa 0,0 l/m 0,0 km/h (0 Bft) 0 min 0,0 km/h (0 Bft)
06.01.2010 03:06 9,0 C -5,1 C 0,0 UV-I 0,0 C 41 % 89 % 0 % 1000,2 hPa 0,0 l/m 0,0 km/h (0 Bft) 0 min 0,0 km/h (0 Bft)
06.01.2010 03:14 8,9 C -5,2 C 0,0 UV-I 0,0 C 41 % 89 % 0 % 1000,4 hPa 0,0 l/m 0,0 km/h (0 Bft) 0 min 0,0 km/h (0 Bft)
06.01.2010 03:18 9,0 C -5,2 C 0,0 UV-I 0,0 C 41 % 89 % 0 % 1000,4 hPa 0,0 l/m 0,0 km/h (0 Bft) 0 min 0,0 km/h (0 Bft)
06.01.2010 03:20 9,0 C -5,2 C 0,0 UV-I 0,0 C 41 % 89 % 0 % 1000,4 hPa 0,0 l/m 0,0 km/h (0 Bft) 0 min 0,0 km/h (0 Bft)
06.01.2010 03:22 9,0 C -5,2 C 0,0 UV-I 0,0 C 41 % 89 % 0 % 1000,4 hPa 0,0 l/m 0,0 km/h (0 Bft) 0 min 0,0 km/h (0 Bft)
06.01.2010 03:26 9,0 C -5,3 C 0,0 UV-I 0,0 C 41 % 89 % 0 % 1000,4 hPa 0,0 l/m 0,0 km/h (0 Bft) 0 min 0,0 km/h (0 Bft)
06.01.2010 03:28 9,0 C -5,3 C 0,0 UV-I 0,0 C 41 % 89 % 0 % 1000,4 hPa 0,0 l/m 0,0 km/h (0 Bft) 0 min 0,0 km/h (0 Bft)
06.01.2010 03:30 9,0 C -5,3 C 0,0 UV-I 0,0 C 41 % 89 % 0 % 1000,4 hPa 0,0 l/m 0,0 km/h (0 Bft) 0 min 0,0 km/h (0 Bft)
06.01.2010 03:32 9,0 C -5,3 C 0,0 UV-I 0,0 C 41 % 89 % 0 % 1000,4 hPa 0,0 l/m 0,0 km/h (0 Bft) 0 min 0,0 km/h (0 Bft)
06.01.2010 03:34 9,0 C -5,3 C 0,0 UV-I 0,0 C 41 % 89 % 0 % 1000,3 hPa 0,0 l/m 0,0 km/h (0 Bft) 0 min 0,0 km/h (0 Bft)
06.01.2010 03:36 9,0 C -5,3 C 0,0 UV-I 0,0 C 41 % 89 % 0 % 1000,3 hPa 0,0 l/m 0,0 km/h (0 Bft) 0 min 0,0 km/h (0 Bft)
06.01.2010 03:40 9,0 C -5,3 C 0,0 UV-I 0,0 C 41 % 89 % 0 % 1000,3 hPa 0,0 l/m 0,0 km/h (0 Bft) 0 min 0,0 km/h (0 Bft)
06.01.2010 03:42 9,0 C -5,3 C 0,0 UV-I 0,0 C 41 % 89 % 0 % 1000,3 hPa 0,0 l/m 0,0 km/h (0 Bft) 0 min 0,0 km/h (0 Bft)
06.01.2010 03:48 9,0 C -5,3 C 0,0 UV-I 0,0 C 41 % 90 % 0 % 1000,3 hPa 0,0 l/m 0,0 km/h (0 Bft) 0 min 0,0 km/h (0 Bft)
06.01.2010 03:50 9,0 C -5,3 C 0,0 UV-I 0,0 C 41 % 90 % 0 % 1000,3 hPa 0,0 l/m 0,0 km/h (0 Bft) 0 min 0,0 km/h (0 Bft)
06.01.2010 03:54 9,0 C -5,3 C 0,0 UV-I 0,0 C 41 % 90 % 0 % 1000,5 hPa 0,0 l/m 0,0 km/h (0 Bft) 0 min 0,0 km/h (0 Bft)
06.01.2010 03:56 9,0 C -5,3 C 0,0 UV-I 0,0 C 41 % 90 % 0 % 1000,5 hPa 0,0 l/m 0,0 km/h (0 Bft) 0 min 0,0 km/h (0 Bft)
06.01.2010 03:58 9,0 C -5,3 C 0,0 UV-I 0,0 C 41 % 90 % 0 % 1000,5 hPa 0,0 l/m 0,0 km/h (0 Bft) 0 min 0,0 km/h (0 Bft)
06.01.2010 04:00 9,0 C -5,3 C 0,0 UV-I 0,0 C 41 % 90 % 0 % 1000,5 hPa 0,0 l/m 0,0 km/h (0 Bft) 0 min 0,0 km/h (0 Bft)
06.01.2010 04:04 9,0 C -5,3 C 0,0 UV-I 0,0 C 41 % 90 % 0 % 1000,5 hPa 0,0 l/m 0,2 km/h (0 Bft) 0 min 0,0 km/h (0 Bft)
06.01.2010 04:06 9,0 C -5,3 C 0,0 UV-I 0,0 C 41 % 90 % 0 % 1000,5 hPa 0,0 l/m 0,2 km/h (0 Bft) 0 min 0,0 km/h (0 Bft)
06.01.2010 04:10 9,0 C -5,5 C 0,0 UV-I 0,0 C 41 % 90 % 0 % 1000,5 hPa 0,0 l/m 0,2 km/h (0 Bft) 0 min 0,0 km/h (0 Bft)
06.01.2010 04:15 9,0 C -5,5 C 0,0 UV-I 0,0 C 41 % 90 % 0 % 1000,4 hPa 0,0 l/m 0,0 km/h (0 Bft) 0 min 0,0 km/h (0 Bft)
06.01.2010 04:18 8,8 C -5,5 C 0,0 UV-I 0,0 C 41 % 90 % 0 % 1000,4 hPa 0,0 l/m 0,0 km/h (0 Bft) 0 min 0,0 km/h (0 Bft)
06.01.2010 04:20 8,8 C -5,5 C 0,0 UV-I 0,0 C 41 % 90 % 0 % 1000,4 hPa 0,0 l/m 0,0 km/h (0 Bft) 0 min 0,0 km/h (0 Bft)
06.01.2010 04:22 9,0 C -5,5 C 0,0 UV-I 0,0 C 41 % 90 % 0 % 1000,4 hPa 0,0 l/m 0,0 km/h (0 Bft) 0 min 0,0 km/h (0 Bft)
06.01.2010 04:24 9,0 C -5,5 C 0,0 UV-I 0,0 C 41 % 90 % 0 % 1000,4 hPa 0,0 l/m 0,5 km/h (0 Bft) 0 min 2,6 km/h (1 Bft)
06.01.2010 04:26 9,0 C -5,5 C 0,0 UV-I 0,0 C 41 % 90 % 0 % 1000,4 hPa 0,0 l/m 0,5 km/h (0 Bft) 0 min 0,0 km/h (0 Bft)
06.01.2010 04:28 9,0 C -5,5 C 0,0 UV-I 0,0 C 41 % 90 % 0 % 1000,4 hPa 0,0 l/m 0,5 km/h (0 Bft) 0 min 0,0 km/h (0 Bft)
06.01.2010 04:30 8,8 C -5,5 C 0,0 UV-I 0,0 C 41 % 90 % 0 % 1000,4 hPa 0,0 l/m 0,5 km/h (0 Bft) 0 min 0,0 km/h (0 Bft)
06.01.2010 04:32 8,8 C -5,5 C 0,0 UV-I 0,0 C 41 % 90 % 0 % 1000,4 hPa 0,0 l/m 0,2 km/h (0 Bft) 0 min 0,0 km/h (0 Bft)
06.01.2010 04:34 8,8 C -5,6 C 0,0 UV-I 0,0 C 41 % 90 % 0 % 1000,4 hPa 0,0 l/m 0,2 km/h (0 Bft) 0 min 0,0 km/h (0 Bft)
06.01.2010 04:36 8,8 C -5,6 C 0,0 UV-I 0,0 C 41 % 90 % 0 % 1000,4 hPa 0,0 l/m 0,0 km/h (0 Bft) 0 min 0,0 km/h (0 Bft)
06.01.2010 04:38 8,8 C -5,6 C 0,0 UV-I 0,0 C 41 % 90 % 0 % 1000,4 hPa 0,0 l/m 0,0 km/h (0 Bft) 0 min 0,0 km/h (0 Bft)
06.01.2010 04:40 8,8 C -5,6 C 0,0 UV-I 0,0 C 41 % 90 % 0 % 1000,4 hPa 0,0 l/m 0,0 km/h (0 Bft) 0 min 0,0 km/h (0 Bft)
06.01.2010 04:42 8,8 C -5,6 C 0,0 UV-I 0,0 C 41 % 90 % 0 % 1000,4 hPa 0,0 l/m 0,0 km/h (0 Bft) 0 min 0,0 km/h (0 Bft)
06.01.2010 04:44 8,8 C -5,5 C 0,0 UV-I 0,0 C 41 % 90 % 0 % 1000,4 hPa 0,0 l/m 0,0 km/h (0 Bft) 0 min 0,0 km/h (0 Bft)
06.01.2010 04:46 8,8 C -5,5 C 0,0 UV-I 0,0 C 41 % 90 % 0 % 1000,4 hPa 0,0 l/m 0,0 km/h (0 Bft) 0 min 0,0 km/h (0 Bft)
06.01.2010 04:48 8,8 C -5,7 C 0,0 UV-I 0,0 C 41 % 90 % 0 % 1000,4 hPa 0,0 l/m 0,0 km/h (0 Bft) 0 min 0,0 km/h (0 Bft)
06.01.2010 04:50 8,8 C -5,7 C 0,0 UV-I 0,0 C 41 % 90 % 0 % 1000,4 hPa 0,0 l/m 0,0 km/h (0 Bft) 0 min 0,0 km/h (0 Bft)
06.01.2010 04:52 8,8 C -5,7 C 0,0 UV-I 0,0 C 41 % 90 % 0 % 1000,4 hPa 0,0 l/m 0,0 km/h (0 Bft) 0 min 0,0 km/h (0 Bft)
06.01.2010 04:54 8,8 C -5,7 C 0,0 UV-I 0,0 C 41 % 90 % 0 % 1000,4 hPa 0,0 l/m 0,0 km/h (0 Bft) 0 min 0,0 km/h (0 Bft)
06.01.2010 04:56 8,8 C -5,7 C 0,0 UV-I 0,0 C 41 % 90 % 0 % 1000,4 hPa 0,0 l/m 0,0 km/h (0 Bft) 0 min 0,0 km/h (0 Bft)
06.01.2010 04:58 8,8 C -5,7 C 0,0 UV-I 0,0 C 41 % 90 % 0 % 1000,4 hPa 0,0 l/m 0,5 km/h (0 Bft) 0 min 0,0 km/h (0 Bft)
06.01.2010 05:00 8,8 C -5,7 C 0,0 UV-I 0,0 C 41 % 90 % 0 % 1000,4 hPa 0,0 l/m 0,5 km/h (0 Bft) 0 min 0,0 km/h (0 Bft)
06.01.2010 05:02 8,9 C -5,7 C 0,0 UV-I 0,0 C 41 % 90 % 0 % 1000,4 hPa 0,0 l/m 0,7 km/h (0 Bft) 0 min 2,4 km/h (1 Bft)
06.01.2010 05:04 8,8 C -5,7 C 0,0 UV-I 0,0 C 41 % 90 % 0 % 1000,4 hPa 0,0 l/m 0,7 km/h (0 Bft) 0 min 0,0 km/h (0 Bft)
06.01.2010 05:06 8,8 C -5,7 C 0,0 UV-I 0,0 C 41 % 90 % 0 % 1000,4 hPa 0,0 l/m 0,7 km/h (0 Bft) 0 min 0,0 km/h (0 Bft)
06.01.2010 05:08 8,8 C -5,7 C 0,0 UV-I 0,0 C 41 % 90 % 0 % 1000,4 hPa 0,0 l/m 0,5 km/h (0 Bft) 0 min 0,0 km/h (0 Bft)
06.01.2010 05:10 8,9 C -5,7 C 0,0 UV-I 0,0 C 41 % 90 % 0 % 1000,4 hPa 0,0 l/m 0,7 km/h (0 Bft) 0 min 5,3 km/h (1 Bft)
06.01.2010 05:12 8,9 C -5,7 C 0,0 UV-I 0,0 C 41 % 90 % 0 % 1000,4 hPa 0,0 l/m 1,2 km/h (1 Bft) 0 min 5,1 km/h (1 Bft)
06.01.2010 05:14 8,9 C -5,7 C 0,0 UV-I 0,0 C 41 % 90 % 0 % 1000,4 hPa 0,0 l/m 1,9 km/h (1 Bft) 0 min 5,3 km/h (1 Bft)
06.01.2010 05:16 8,9 C -5,7 C 0,0 UV-I 0,0 C 41 % 90 % 0 % 1000,4 hPa 0,0 l/m 2,6 km/h (1 Bft) 0 min 4,3 km/h (1 Bft)
06.01.2010 05:18 8,9 C -5,7 C 0,0 UV-I 0,0 C 41 % 90 % 0 % 1000,4 hPa 0,0 l/m 2,9 km/h (1 Bft) 0 min 3,8 km/h (1 Bft)
06.01.2010 05:20 8,8 C -5,7 C 0,0 UV-I 0,0 C 41 % 90 % 0 % 1000,4 hPa 0,0 l/m 3,4 km/h (1 Bft) 0 min 3,1 km/h (1 Bft)
06.01.2010 05:22 8,9 C -5,7 C 0,0 UV-I 0,0 C 41 % 90 % 0 % 1000,4 hPa 0,0 l/m 3,1 km/h (1 Bft) 0 min 6,5 km/h (2 Bft)
06.01.2010 05:24 8,8 C -5,7 C 0,0 UV-I 0,0 C 41 % 90 % 0 % 1000,4 hPa 0,0 l/m 3,1 km/h (1 Bft) 0 min 5,1 km/h (1 Bft)
06.01.2010 05:26 8,8 C -5,7 C 0,0 UV-I 0,0 C 41 % 90 % 0 % 1000,4 hPa 0,0 l/m 3,1 km/h (1 Bft) 0 min 5,8 km/h (2 Bft)
06.01.2010 05:28 8,9 C -5,7 C 0,0 UV-I 0,0 C 40 % 90 % 0 % 1000,4 hPa 0,0 l/m 3,4 km/h (1 Bft) 0 min 7,0 km/h (2 Bft)
06.01.2010 05:30 8,8 C -5,7 C 0,0 UV-I 0,0 C 41 % 90 % 0 % 1000,4 hPa 0,0 l/m 3,1 km/h (1 Bft) 0 min 2,9 km/h (1 Bft)
06.01.2010 05:32 8,8 C -5,7 C 0,0 UV-I 0,0 C 40 % 90 % 0 % 1000,4 hPa 0,0 l/m 3,4 km/h (1 Bft) 0 min 3,8 km/h (1 Bft)
06.01.2010 05:34 8,8 C -5,7 C 0,0 UV-I 0,0 C 40 % 90 % 0 % 1000,5 hPa 0,0 l/m 3,4 km/h (1 Bft) 0 min 0,0 km/h (0 Bft)
06.01.2010 05:36 8,8 C -5,7 C 0,0 UV-I 0,0 C 40 % 90 % 0 % 1000,5 hPa 0,0 l/m 3,4 km/h (1 Bft) 0 min 4,3 km/h (1 Bft)
06.01.2010 05:38 8,8 C -5,7 C 0,0 UV-I 0,0 C 40 % 90 % 0 % 1000,5 hPa 0,0 l/m 3,4 km/h (1 Bft) 0 min 6,5 km/h (2 Bft)
06.01.2010 05:40 8,8 C -5,7 C 0,0 UV-I 0,0 C 40 % 90 % 0 % 1000,5 hPa 0,0 l/m 3,4 km/h (1 Bft) 0 min 5,3 km/h (1 Bft)
06.01.2010 05:42 8,8 C -5,7 C 0,0 UV-I 0,0 C 40 % 90 % 0 % 1000,5 hPa 0,0 l/m 3,8 km/h (1 Bft) 0 min 4,8 km/h (1 Bft)
06.01.2010 05:44 8,8 C -5,7 C 0,0 UV-I 0,0 C 40 % 90 % 0 % 1000,5 hPa 0,0 l/m 3,6 km/h (1 Bft) 0 min 0,0 km/h (0 Bft)
06.01.2010 05:46 8,8 C -5,7 C 0,0 UV-I 0,0 C 40 % 90 % 0 % 1000,5 hPa 0,0 l/m 3,6 km/h (1 Bft) 0 min 5,1 km/h (1 Bft)
06.01.2010 05:48 8,8 C -5,7 C 0,0 UV-I 0,0 C 40 % 90 % 0 % 1000,5 hPa 0,0 l/m 2,9 km/h (1 Bft) 0 min 2,4 km/h (1 Bft)
06.01.2010 05:50 8,8 C -5,7 C 0,0 UV-I 0,0 C 40 % 90 % 0 % 1000,5 hPa 0,0 l/m 2,9 km/h (1 Bft) 0 min 2,9 km/h (1 Bft)
06.01.2010 05:52 8,8 C -5,7 C 0,0 UV-I 0,0 C 40 % 90 % 0 % 1000,5 hPa 0,0 l/m 2,4 km/h (1 Bft) 0 min 6,0 km/h (2 Bft)
06.01.2010 05:54 8,8 C -5,7 C 0,0 UV-I 0,0 C 40 % 90 % 0 % 1000,2 hPa 0,0 l/m 1,9 km/h (1 Bft) 0 min 2,4 km/h (1 Bft)
06.01.2010 05:56 8,8 C -5,7 C 0,0 UV-I 0,0 C 40 % 90 % 0 % 1000,2 hPa 0,0 l/m 1,9 km/h (1 Bft) 0 min 2,9 km/h (1 Bft)
06.01.2010 05:58 8,8 C -5,7 C 0,0 UV-I 0,0 C 40 % 90 % 0 % 1000,2 hPa 0,0 l/m 1,9 km/h (1 Bft) 0 min 2,6 km/h (1 Bft)
06.01.2010 06:00 8,8 C -5,7 C 0,0 UV-I 0,0 C 40 % 90 % 0 % 1000,2 hPa 0,0 l/m 1,7 km/h (1 Bft) 0 min 0,0 km/h (0 Bft)
06.01.2010 06:02 8,8 C -5,7 C 0,0 UV-I 0,0 C 40 % 90 % 0 % 1000,2 hPa 0,0 l/m 1,4 km/h (1 Bft) 0 min 0,0 km/h (0 Bft)
06.01.2010 06:04 8,8 C -5,7 C 0,0 UV-I 0,0 C 40 % 90 % 0 % 1000,2 hPa 0,0 l/m 1,4 km/h (1 Bft) 0 min 0,0 km/h (0 Bft)
06.01.2010 06:06 8,8 C -5,7 C 0,0 UV-I 0,0 C 40 % 90 % 0 % 1000,2 hPa 0,0 l/m 1,0 km/h (0 Bft) 0 min 2,4 km/h (1 Bft)
06.01.2010 06:08 8,8 C -5,7 C 0,0 UV-I 0,0 C 40 % 90 % 0 % 1000,2 hPa 0,0 l/m 0,7 km/h (0 Bft) 0 min 3,4 km/h (1 Bft)
06.01.2010 06:10 8,8 C -5,7 C 0,0 UV-I 0,0 C 40 % 90 % 0 % 1000,2 hPa 0,0 l/m 0,7 km/h (0 Bft) 0 min 0,0 km/h (0 Bft)
06.01.2010 06:12 8,8 C -5,7 C 0,0 UV-I 0,0 C 40 % 90 % 0 % 1000,2 hPa 0,0 l/m 1,2 km/h (1 Bft) 0 min 3,4 km/h (1 Bft)
06.01.2010 06:14 8,8 C -5,8 C 0,0 UV-I 0,0 C 40 % 90 % 0 % 999,6 hPa 0,0 l/m 1,7 km/h (1 Bft) 0 min 4,8 km/h (1 Bft)
06.01.2010 06:16 8,8 C -5,7 C 0,0 UV-I 0,0 C 40 % 90 % 0 % 999,6 hPa 0,0 l/m 2,4 km/h (1 Bft) 0 min 4,3 km/h (1 Bft)
06.01.2010 06:18 8,8 C -5,7 C 0,0 UV-I 0,0 C 40 % 90 % 0 % 999,6 hPa 0,0 l/m 2,4 km/h (1 Bft) 0 min 2,4 km/h (1 Bft)
06.01.2010 06:20 8,8 C -5,7 C 0,0 UV-I 0,0 C 40 % 90 % 0 % 999,6 hPa 0,0 l/m 2,6 km/h (1 Bft) 0 min 5,8 km/h (2 Bft)
06.01.2010 06:22 8,8 C -5,7 C 0,0 UV-I 0,0 C 40 % 90 % 0 % 999,6 hPa 0,0 l/m 2,6 km/h (1 Bft) 0 min 4,6 km/h (1 Bft)
06.01.2010 06:24 8,8 C -5,8 C 0,0 UV-I 0,0 C 40 % 90 % 0 % 999,6 hPa 0,0 l/m 2,6 km/h (1 Bft) 0 min 3,4 km/h (1 Bft)
06.01.2010 06:26 8,8 C -5,7 C 0,0 UV-I 0,0 C 40 % 90 % 0 % 999,6 hPa 0,0 l/m 1,9 km/h (1 Bft) 0 min 2,6 km/h (1 Bft)
06.01.2010 06:28 8,8 C -5,7 C 0,0 UV-I 0,0 C 40 % 90 % 0 % 999,6 hPa 0,0 l/m 1,9 km/h (1 Bft) 0 min 2,6 km/h (1 Bft)
06.01.2010 06:30 8,8 C -5,7 C 0,0 UV-I 0,0 C 40 % 90 % 0 % 999,6 hPa 0,0 l/m 1,7 km/h (1 Bft) 0 min 0,0 km/h (0 Bft)
06.01.2010 06:32 8,8 C -5,7 C 0,0 UV-I 0,0 C 40 % 90 % 0 % 999,6 hPa 0,0 l/m 1,7 km/h (1 Bft) 0 min 3,1 km/h (1 Bft)
06.01.2010 06:34 8,8 C -5,7 C 0,0 UV-I 0,0 C 40 % 90 % 0 % 1000,1 hPa 0,0 l/m 1,7 km/h (1 Bft) 0 min 5,5 km/h (1 Bft)
06.01.2010 06:36 8,8 C -5,9 C 0,0 UV-I 0,0 C 40 % 90 % 0 % 1000,1 hPa 0,0 l/m 1,9 km/h (1 Bft) 0 min 4,8 km/h (1 Bft)
06.01.2010 06:38 8,8 C -5,9 C 0,0 UV-I 0,0 C 40 % 90 % 0 % 1000,1 hPa 0,0 l/m 2,2 km/h (1 Bft) 0 min 3,8 km/h (1 Bft)
06.01.2010 06:42 8,8 C -5,9 C 0,0 UV-I 0,0 C 40 % 90 % 0 % 1000,1 hPa 0,0 l/m 1,9 km/h (1 Bft) 0 min 3,4 km/h (1 Bft)
06.01.2010 06:44 8,8 C -5,9 C 0,0 UV-I 0,0 C 40 % 90 % 0 % 1000,1 hPa 0,0 l/m 2,2 km/h (1 Bft) 0 min 3,4 km/h (1 Bft)
06.01.2010 06:46 8,8 C -5,9 C 0,0 UV-I 0,0 C 40 % 90 % 0 % 1000,1 hPa 0,0 l/m 1,9 km/h (1 Bft) 0 min 2,6 km/h (1 Bft)
06.01.2010 06:48 8,8 C -5,9 C 0,0 UV-I 0,0 C 40 % 90 % 0 % 1000,1 hPa 0,0 l/m 1,7 km/h (1 Bft) 0 min 0,0 km/h (0 Bft)
06.01.2010 06:50 8,6 C -5,9 C 0,0 UV-I 0,0 C 40 % 90 % 0 % 1000,1 hPa 0,0 l/m 1,4 km/h (1 Bft) 0 min 0,0 km/h (0 Bft)
06.01.2010 06:52 8,8 C -5,9 C 0,0 UV-I 0,0 C 40 % 90 % 0 % 1000,1 hPa 0,0 l/m 1,2 km/h (1 Bft) 0 min 0,0 km/h (0 Bft)
06.01.2010 06:54 8,6 C -6,0 C 0,0 UV-I 0,0 C 40 % 90 % 0 % 1000,2 hPa 0,0 l/m 1,0 km/h (0 Bft) 0 min 0,0 km/h (0 Bft)
06.01.2010 06:56 8,6 C -6,0 C 0,0 UV-I 0,0 C 40 % 90 % 0 % 1000,2 hPa 0,0 l/m 1,0 km/h (0 Bft) 0 min 4,8 km/h (1 Bft)
06.01.2010 06:58 8,6 C -6,0 C 0,0 UV-I 0,0 C 40 % 90 % 0 % 1000,2 hPa 0,0 l/m 1,4 km/h (1 Bft) 0 min 3,4 km/h (1 Bft)
06.01.2010 07:00 8,6 C -6,0 C 0,0 UV-I 0,0 C 40 % 90 % 0 % 1000,2 hPa 0,0 l/m 1,7 km/h (1 Bft) 0 min 0,0 km/h (0 Bft)
06.01.2010 07:02 8,7 C -6,0 C 0,0 UV-I 0,0 C 40 % 90 % 0 % 1000,2 hPa 0,0 l/m 2,2 km/h (1 Bft) 0 min 3,8 km/h (1 Bft)
06.01.2010 07:04 8,6 C -5,9 C 0,0 UV-I 0,0 C 40 % 90 % 0 % 1000,2 hPa 0,0 l/m 2,9 km/h (1 Bft) 0 min 5,8 km/h (2 Bft)
06.01.2010 07:06 8,7 C -5,9 C 0,0 UV-I 0,0 C 40 % 90 % 0 % 1000,2 hPa 0,0 l/m 3,4 km/h (1 Bft) 0 min 5,1 km/h (1 Bft)
06.01.2010 07:08 8,7 C -5,9 C 0,0 UV-I 0,0 C 40 % 90 % 0 % 1000,2 hPa 0,0 l/m 3,6 km/h (1 Bft) 0 min 7,0 km/h (2 Bft)
06.01.2010 07:10 8,7 C -6,1 C 0,0 UV-I 0,0 C 40 % 90 % 0 % 1000,2 hPa 0,0 l/m 3,6 km/h (1 Bft) 0 min 2,6 km/h (1 Bft)
06.01.2010 07:12 8,7 C -6,1 C 0,0 UV-I 0,0 C 40 % 90 % 0 % 1000,2 hPa 0,0 l/m 3,8 km/h (1 Bft) 0 min 4,8 km/h (1 Bft)
06.01.2010 07:14 8,7 C -6,1 C 0,0 UV-I 0,0 C 40 % 90 % 0 % 1000,1 hPa 0,0 l/m 3,4 km/h (1 Bft) 0 min 0,0 km/h (0 Bft)
06.01.2010 07:16 8,7 C -6,1 C 0,0 UV-I 0,0 C 40 % 90 % 0 % 1000,1 hPa 0,0 l/m 3,6 km/h (1 Bft) 0 min 9,1 km/h (2 Bft)
06.01.2010 07:18 8,7 C -6,1 C 0,0 UV-I 0,0 C 40 % 90 % 0 % 1000,1 hPa 0,0 l/m 3,6 km/h (1 Bft) 0 min 8,7 km/h (2 Bft)
06.01.2010 07:20 8,7 C -6,1 C 0,0 UV-I 0,0 C 40 % 90 % 0 % 1000,1 hPa 0,0 l/m 3,6 km/h (1 Bft) 0 min 4,8 km/h (1 Bft)
06.01.2010 07:22 8,7 C -6,1 C 0,0 UV-I 0,0 C 40 % 90 % 0 % 1000,1 hPa 0,0 l/m 3,8 km/h (1 Bft) 0 min 6,3 km/h (2 Bft)
06.01.2010 07:24 8,6 C -6,1 C 0,0 UV-I 0,0 C 40 % 90 % 0 % 1000,1 hPa 0,0 l/m 4,1 km/h (1 Bft) 0 min 7,2 km/h (2 Bft)
06.01.2010 07:26 8,6 C -6,1 C 0,0 UV-I 0,0 C 40 % 90 % 0 % 1000,1 hPa 0,0 l/m 4,3 km/h (1 Bft) 0 min 0,0 km/h (0 Bft)
06.01.2010 07:28 8,6 C -6,1 C 0,0 UV-I 0,0 C 40 % 90 % 0 % 1000,1 hPa 0,0 l/m 3,8 km/h (1 Bft) 0 min 5,1 km/h (1 Bft)
06.01.2010 07:30 8,6 C -6,1 C 0,0 UV-I 0,0 C 40 % 90 % 0 % 1000,1 hPa 0,0 l/m 3,6 km/h (1 Bft) 0 min 5,3 km/h (1 Bft)
06.01.2010 07:32 8,7 C -6,1 C 0,0 UV-I 0,0 C 40 % 90 % 0 % 1000,1 hPa 0,0 l/m 2,9 km/h (1 Bft) 0 min 5,8 km/h (2 Bft)
06.01.2010 07:34 8,6 C -6,1 C 0,0 UV-I 0,0 C 40 % 90 % 0 % 1000,1 hPa 0,0 l/m 2,4 km/h (1 Bft) 0 min 7,2 km/h (2 Bft)
06.01.2010 07:36 8,6 C -6,1 C 0,0 UV-I 0,0 C 40 % 90 % 0 % 1000,1 hPa 0,0 l/m 1,9 km/h (1 Bft) 0 min 2,9 km/h (1 Bft)
06.01.2010 07:38 8,6 C -6,1 C 0,0 UV-I 0,0 C 40 % 90 % 0 % 1000,1 hPa 0,0 l/m 1,9 km/h (1 Bft) 0 min 0,0 km/h (0 Bft)
06.01.2010 07:40 8,6 C -6,1 C 0,0 UV-I 0,0 C 40 % 90 % 0 % 1000,1 hPa 0,0 l/m 2,2 km/h (1 Bft) 0 min 6,7 km/h (2 Bft)
06.01.2010 07:44 8,6 C -6,1 C 0,0 UV-I 0,0 C 40 % 90 % 0 % 1000,1 hPa 0,0 l/m 2,6 km/h (1 Bft) 0 min 12,3 km/h (3 Bft)
06.01.2010 07:46 8,6 C -6,1 C 0,0 UV-I 0,0 C 40 % 90 % 0 % 1000,1 hPa 0,0 l/m 2,9 km/h (1 Bft) 0 min 5,3 km/h (1 Bft)
06.01.2010 07:48 8,6 C -6,1 C 0,0 UV-I 0,0 C 40 % 90 % 0 % 1000,1 hPa 0,0 l/m 3,4 km/h (1 Bft) 0 min 0,0 km/h (0 Bft)
06.01.2010 07:50 8,6 C -6,1 C 0,0 UV-I 0,0 C 40 % 90 % 0 % 1000,1 hPa 0,0 l/m 3,4 km/h (1 Bft) 0 min 6,5 km/h (2 Bft)
06.01.2010 07:52 8,6 C -6,1 C 0,0 UV-I 0,0 C 40 % 90 % 0 % 1000,1 hPa 0,0 l/m 3,6 km/h (1 Bft) 0 min 5,5 km/h (1 Bft)
06.01.2010 07:54 8,6 C -6,1 C 0,0 UV-I 0,0 C 40 % 90 % 0 % 1000,2 hPa 0,0 l/m 3,6 km/h (1 Bft) 0 min 5,8 km/h (2 Bft)
06.01.2010 07:56 8,6 C -6,1 C 0,0 UV-I 0,0 C 40 % 90 % 0 % 1000,2 hPa 0,0 l/m 3,1 km/h (1 Bft) 0 min 3,1 km/h (1 Bft)
06.01.2010 07:58 8,6 C -6,1 C 0,0 UV-I 0,0 C 40 % 90 % 0 % 1000,2 hPa 0,0 l/m 2,6 km/h (1 Bft) 0 min 5,5 km/h (1 Bft)
06.01.2010 08:00 8,6 C -6,1 C 0,0 UV-I 0,0 C 40 % 90 % 0 % 1000,2 hPa 0,0 l/m 2,6 km/h (1 Bft) 0 min 3,8 km/h (1 Bft)
06.01.2010 08:02 8,6 C -6,1 C 0,0 UV-I 0,0 C 40 % 90 % 0 % 1000,2 hPa 0,0 l/m 2,4 km/h (1 Bft) 0 min 2,6 km/h (1 Bft)
06.01.2010 08:04 8,6 C -6,1 C 0,0 UV-I 0,0 C 40 % 90 % 0 % 1000,2 hPa 0,0 l/m 2,2 km/h (1 Bft) 0 min 0,0 km/h (0 Bft)
06.01.2010 08:08 8,6 C -6,1 C 0,0 UV-I 0,0 C 40 % 90 % 0 % 1000,2 hPa 0,0 l/m 1,9 km/h (1 Bft) 0 min 2,4 km/h (1 Bft)
06.01.2010 08:10 8,6 C -6,1 C 0,0 UV-I 0,0 C 40 % 90 % 0 % 1000,2 hPa 0,0 l/m 1,4 km/h (1 Bft) 0 min 0,0 km/h (0 Bft)
06.01.2010 08:12 8,6 C -6,1 C 0,0 UV-I 0,0 C 40 % 90 % 0 % 1000,2 hPa 0,0 l/m 1,2 km/h (1 Bft) 0 min 0,0 km/h (0 Bft)
06.01.2010 08:14 8,6 C -6,1 C 0,0 UV-I 0,0 C 40 % 90 % 0 % 1000,2 hPa 0,0 l/m 1,0 km/h (0 Bft) 0 min 3,1 km/h (1 Bft)
06.01.2010 08:16 8,6 C -6,2 C 0,0 UV-I 0,0 C 40 % 90 % 0 % 1000,2 hPa 0,0 l/m 0,7 km/h (0 Bft) 0 min 0,0 km/h (0 Bft)
06.01.2010 08:18 8,6 C -6,2 C 0,0 UV-I 0,0 C 40 % 90 % 0 % 1000,2 hPa 0,0 l/m 1,0 km/h (0 Bft) 0 min 4,3 km/h (1 Bft)
06.01.2010 08:20 8,6 C -6,1 C 0,0 UV-I 0,0 C 40 % 90 % 0 % 1000,2 hPa 0,0 l/m 1,0 km/h (0 Bft) 0 min 0,0 km/h (0 Bft)
06.01.2010 08:22 8,6 C -6,1 C 0,0 UV-I 0,0 C 40 % 90 % 0 % 1000,2 hPa 0,0 l/m 1,0 km/h (0 Bft) 0 min 0,0 km/h (0 Bft)
06.01.2010 08:24 8,6 C -6,1 C 0,0 UV-I 0,0 C 40 % 90 % 0 % 1000,2 hPa 0,0 l/m 0,7 km/h (0 Bft) 0 min 0,0 km/h (0 Bft)
06.01.2010 08:26 8,6 C -6,1 C 0,0 UV-I 0,0 C 40 % 90 % 0 % 1000,2 hPa 0,0 l/m 0,7 km/h (0 Bft) 0 min 0,0 km/h (0 Bft)
06.01.2010 08:28 8,6 C -6,3 C 0,0 UV-I 0,0 C 40 % 90 % 0 % 1000,2 hPa 0,0 l/m 0,5 km/h (0 Bft) 0 min 0,0 km/h (0 Bft)
06.01.2010 08:30 8,6 C -6,3 C 0,0 UV-I 0,0 C 40 % 90 % 0 % 1000,2 hPa 0,0 l/m 0,2 km/h (0 Bft) 0 min 0,0 km/h (0 Bft)
06.01.2010 08:32 8,6 C -6,1 C 0,0 UV-I 0,0 C 40 % 90 % 0 % 1000,2 hPa 0,0 l/m 0,2 km/h (0 Bft) 0 min 2,6 km/h (1 Bft)
06.01.2010 08:36 8,6 C -6,3 C 0,0 UV-I 0,0 C 40 % 90 % 0 % 1000,2 hPa 0,0 l/m 0,5 km/h (0 Bft) 0 min 2,9 km/h (1 Bft)
06.01.2010 08:38 8,6 C -6,3 C 0,0 UV-I 0,0 C 40 % 90 % 0 % 1000,2 hPa 0,0 l/m 0,5 km/h (0 Bft) 0 min 0,0 km/h (0 Bft)
06.01.2010 08:42 8,6 C -6,4 C 0,0 UV-I 0,0 C 40 % 90 % 0 % 1000,2 hPa 0,0 l/m 0,2 km/h (0 Bft) 0 min 0,0 km/h (0 Bft)
06.01.2010 08:44 8,6 C -6,4 C 0,0 UV-I 0,0 C 40 % 90 % 0 % 1000,2 hPa 0,0 l/m 0,2 km/h (0 Bft) 0 min 0,0 km/h (0 Bft)
06.01.2010 08:46 8,6 C -6,4 C 0,0 UV-I 0,0 C 40 % 90 % 0 % 1000,2 hPa 0,0 l/m 0,2 km/h (0 Bft) 0 min 0,0 km/h (0 Bft)
06.01.2010 08:48 8,4 C -6,4 C 0,0 UV-I 0,0 C 40 % 90 % 0 % 1000,2 hPa 0,0 l/m 0,0 km/h (0 Bft) 0 min 3,1 km/h (1 Bft)
06.01.2010 08:50 8,6 C -6,4 C 0,0 UV-I 0,0 C 40 % 90 % 0 % 1000,2 hPa 0,0 l/m 0,0 km/h (0 Bft) 0 min 0,0 km/h (0 Bft)
06.01.2010 08:52 8,6 C -6,5 C 0,0 UV-I 0,0 C 40 % 90 % 0 % 1000,2 hPa 0,0 l/m 0,0 km/h (0 Bft) 0 min 0,0 km/h (0 Bft)
06.01.2010 08:54 8,6 C -6,5 C 0,0 UV-I 0,0 C 40 % 90 % 0 % 1000,1 hPa 0,0 l/m 0,0 km/h (0 Bft) 0 min 0,0 km/h (0 Bft)
06.01.2010 08:56 8,4 C -6,5 C 0,0 UV-I 0,0 C 40 % 90 % 0 % 1000,1 hPa 0,0 l/m 0,0 km/h (0 Bft) 0 min 0,0 km/h (0 Bft)
06.01.2010 08:58 8,4 C -6,5 C 0,0 UV-I 0,0 C 40 % 90 % 0 % 1000,1 hPa 0,0 l/m 0,0 km/h (0 Bft) 0 min 0,0 km/h (0 Bft)
06.01.2010 09:02 8,6 C -6,5 C 0,0 UV-I 0,0 C 40 % 90 % 0 % 1000,1 hPa 0,0 l/m 0,0 km/h (0 Bft) 0 min 3,1 km/h (1 Bft)
06.01.2010 09:04 8,4 C -6,5 C 0,0 UV-I 0,0 C 40 % 90 % 0 % 1000,1 hPa 0,0 l/m 0,0 km/h (0 Bft) 0 min 0,0 km/h (0 Bft)
06.01.2010 09:06 8,4 C -6,5 C 0,0 UV-I 0,0 C 40 % 90 % 0 % 1000,1 hPa 0,0 l/m 0,0 km/h (0 Bft) 0 min 0,0 km/h (0 Bft)
06.01.2010 09:08 8,6 C -6,5 C 0,0 UV-I 0,0 C 40 % 90 % 0 % 1000,1 hPa 0,0 l/m 0,0 km/h (0 Bft) 0 min 0,0 km/h (0 Bft)
06.01.2010 09:10 8,6 C -6,5 C 0,0 UV-I 0,0 C 40 % 90 % 0 % 1000,1 hPa 0,0 l/m 0,0 km/h (0 Bft) 0 min 0,0 km/h (0 Bft)
06.01.2010 09:12 8,4 C -6,5 C 0,0 UV-I 0,0 C 40 % 90 % 0 % 1000,1 hPa 0,0 l/m 0,0 km/h (0 Bft) 0 min 0,0 km/h (0 Bft)
06.01.2010 09:14 8,4 C -6,6 C 0,0 UV-I 0,0 C 40 % 90 % 0 % 1000,1 hPa 0,0 l/m 0,0 km/h (0 Bft) 0 min 0,0 km/h (0 Bft)
06.01.2010 09:16 8,4 C -6,5 C 0,0 UV-I 0,0 C 40 % 90 % 0 % 1000,1 hPa 0,0 l/m 0,0 km/h (0 Bft) 0 min 0,0 km/h (0 Bft)
06.01.2010 09:20 8,4 C -6,5 C 0,0 UV-I 0,0 C 40 % 90 % 0 % 1000,1 hPa 0,0 l/m 0,0 km/h (0 Bft) 0 min 0,0 km/h (0 Bft)
06.01.2010 09:22 8,4 C -6,6 C 0,0 UV-I 0,0 C 40 % 90 % 0 % 1000,1 hPa 0,0 l/m 0,0 km/h (0 Bft) 0 min 0,0 km/h (0 Bft)
06.01.2010 09:24 8,4 C -6,5 C 0,0 UV-I 0,0 C 40 % 90 % 0 % 1000,1 hPa 0,0 l/m 0,0 km/h (0 Bft) 0 min 0,0 km/h (0 Bft)
06.01.2010 09:26 8,6 C -6,5 C 0,0 UV-I 0,0 C 40 % 90 % 0 % 1000,1 hPa 0,0 l/m 0,0 km/h (0 Bft) 0 min 0,0 km/h (0 Bft)
06.01.2010 09:28 8,4 C -6,6 C 0,0 UV-I 0,0 C 40 % 90 % 0 % 1000,1 hPa 0,0 l/m 0,0 km/h (0 Bft) 0 min 0,0 km/h (0 Bft)
06.01.2010 09:30 8,4 C -6,5 C 0,0 UV-I 0,0 C 40 % 90 % 0 % 1000,1 hPa 0,0 l/m 0,0 km/h (0 Bft) 0 min 2,4 km/h (1 Bft)
06.01.2010 09:32 8,4 C -6,5 C 0,0 UV-I 0,0 C 40 % 90 % 0 % 1000,1 hPa 0,0 l/m 0,0 km/h (0 Bft) 0 min 0,0 km/h (0 Bft)
06.01.2010 09:34 8,4 C -6,5 C 0,0 UV-I 0,0 C 40 % 90 % 0 % 1000,1 hPa 0,0 l/m 0,0 km/h (0 Bft) 0 min 0,0 km/h (0 Bft)
06.01.2010 09:36 8,4 C -6,5 C 0,0 UV-I 0,0 C 40 % 90 % 0 % 1000,1 hPa 0,0 l/m 0,0 km/h (0 Bft) 0 min 0,0 km/h (0 Bft)
06.01.2010 09:38 8,4 C -6,5 C 0,0 UV-I 0,0 C 40 % 90 % 0 % 1000,1 hPa 0,0 l/m 0,0 km/h (0 Bft) 0 min 0,0 km/h (0 Bft)
06.01.2010 09:40 8,4 C -6,7 C 0,0 UV-I 0,0 C 40 % 90 % 0 % 1000,1 hPa 0,0 l/m 0,0 km/h (0 Bft) 0 min 0,0 km/h (0 Bft)
06.01.2010 09:42 8,4 C -6,7 C 0,0 UV-I 0,0 C 40 % 90 % 0 % 1000,1 hPa 0,0 l/m 0,0 km/h (0 Bft) 0 min 0,0 km/h (0 Bft)
06.01.2010 09:44 8,4 C -6,5 C 0,0 UV-I 0,0 C 40 % 90 % 0 % 1000,1 hPa 0,0 l/m 0,0 km/h (0 Bft) 0 min 0,0 km/h (0 Bft)
06.01.2010 09:46 8,4 C -6,7 C 0,0 UV-I 0,0 C 40 % 90 % 0 % 1000,1 hPa 0,0 l/m 0,0 km/h (0 Bft) 0 min 0,0 km/h (0 Bft)
06.01.2010 09:48 8,4 C -6,7 C 0,0 UV-I 0,0 C 40 % 90 % 0 % 1000,1 hPa 0,0 l/m 0,0 km/h (0 Bft) 0 min 0,0 km/h (0 Bft)
06.01.2010 09:50 8,4 C -6,7 C 0,0 UV-I 0,0 C 40 % 90 % 0 % 1000,1 hPa 0,0 l/m 0,0 km/h (0 Bft) 0 min 0,0 km/h (0 Bft)
06.01.2010 09:52 8,5 C -6,7 C 0,0 UV-I 0,0 C 40 % 90 % 0 % 1000,1 hPa 0,0 l/m 0,0 km/h (0 Bft) 0 min 0,0 km/h (0 Bft)
06.01.2010 09:54 8,4 C -6,7 C 0,0 UV-I 0,0 C 40 % 90 % 0 % 1001,3 hPa 0,0 l/m 0,0 km/h (0 Bft) 0 min 0,0 km/h (0 Bft)
06.01.2010 09:56 8,4 C -6,8 C 0,0 UV-I 0,0 C 40 % 90 % 0 % 1001,3 hPa 0,0 l/m 0,0 km/h (0 Bft) 0 min 0,0 km/h (0 Bft)
06.01.2010 10:02 8,4 C -6,7 C 0,0 UV-I 0,0 C 39 % 90 % 0 % 1001,3 hPa 0,0 l/m 0,2 km/h (0 Bft) 0 min 2,9 km/h (1 Bft)
06.01.2010 10:04 8,4 C -6,7 C 0,0 UV-I 0,0 C 39 % 91 % 0 % 1001,3 hPa 0,0 l/m 0,7 km/h (0 Bft) 0 min 4,8 km/h (1 Bft)
06.01.2010 10:06 8,4 C -6,7 C 0,0 UV-I 0,0 C 40 % 91 % 0 % 1001,3 hPa 0,0 l/m 0,7 km/h (0 Bft) 0 min 0,0 km/h (0 Bft)
06.01.2010 10:08 8,6 C -6,6 C 0,0 UV-I 0,0 C 40 % 91 % 0 % 1001,3 hPa 0,0 l/m 1,2 km/h (1 Bft) 0 min 0,0 km/h (0 Bft)
06.01.2010 10:10 8,4 C -6,5 C 0,0 UV-I 0,0 C 40 % 91 % 0 % 1001,3 hPa 0,0 l/m 1,4 km/h (1 Bft) 0 min 4,1 km/h (1 Bft)
06.01.2010 10:12 8,4 C -6,5 C 0,0 UV-I 0,0 C 40 % 91 % 0 % 1001,3 hPa 0,0 l/m 1,9 km/h (1 Bft) 0 min 4,3 km/h (1 Bft)
06.01.2010 10:14 8,4 C -6,5 C 0,0 UV-I 0,0 C 40 % 91 % 0 % 1001,0 hPa 0,0 l/m 1,9 km/h (1 Bft) 0 min 4,3 km/h (1 Bft)
06.01.2010 10:16 8,4 C -6,5 C 0,0 UV-I 0,0 C 40 % 91 % 0 % 1001,0 hPa 0,0 l/m 2,2 km/h (1 Bft) 0 min 0,0 km/h (0 Bft)
06.01.2010 10:18 8,4 C -6,4 C 0,0 UV-I 0,0 C 40 % 91 % 0 % 1001,0 hPa 0,0 l/m 1,9 km/h (1 Bft) 0 min 6,5 km/h (2 Bft)
06.01.2010 10:20 8,4 C -6,3 C 0,0 UV-I 0,0 C 39 % 91 % 0 % 1001,0 hPa 0,0 l/m 1,9 km/h (1 Bft) 0 min 2,4 km/h (1 Bft)
06.01.2010 10:22 8,4 C -6,3 C 0,0 UV-I 0,8 C 40 % 91 % 23 % 1001,0 hPa 0,0 l/m 2,4 km/h (1 Bft) 0 min 6,0 km/h (2 Bft)
06.01.2010 10:24 8,4 C -6,1 C 0,0 UV-I 1,4 C 40 % 91 % 40 % 1001,0 hPa 0,0 l/m 2,6 km/h (1 Bft) 0 min 4,6 km/h (1 Bft)
06.01.2010 10:26 8,4 C -6,1 C 0,0 UV-I 2,1 C 40 % 91 % 60 % 1001,0 hPa 0,0 l/m 2,6 km/h (1 Bft) 2 min 4,6 km/h (1 Bft)
06.01.2010 10:32 8,4 C -6,0 C 0,0 UV-I 4,0 C 39 % 91 % 100 % 1001,0 hPa 0,0 l/m 2,4 km/h (1 Bft) 2 min 5,1 km/h (1 Bft)
06.01.2010 10:34 8,4 C -5,7 C 0,0 UV-I 4,5 C 40 % 91 % 100 % 1001,2 hPa 0,0 l/m 1,7 km/h (1 Bft) 2 min 0,0 km/h (0 Bft)
06.01.2010 10:36 8,4 C -5,7 C 0,0 UV-I 5,4 C 40 % 91 % 100 % 1001,2 hPa 0,0 l/m 1,2 km/h (1 Bft) 2 min 0,0 km/h (0 Bft)
06.01.2010 10:38 8,6 C -5,7 C 0,0 UV-I 6,2 C 40 % 91 % 100 % 1001,2 hPa 0,0 l/m 0,7 km/h (0 Bft) 2 min 0,0 km/h (0 Bft)
06.01.2010 10:40 8,6 C -5,7 C 0,0 UV-I 7,0 C 40 % 91 % 100 % 1001,2 hPa 0,0 l/m 0,0 km/h (0 Bft) 2 min 2,9 km/h (1 Bft)
06.01.2010 10:42 8,6 C -5,5 C 0,0 UV-I 7,0 C 40 % 91 % 100 % 1001,2 hPa 0,0 l/m 0,2 km/h (0 Bft) 2 min 0,0 km/h (0 Bft)
06.01.2010 10:44 8,6 C -5,6 C 0,0 UV-I 7,5 C 40 % 91 % 100 % 1001,2 hPa 0,0 l/m 0,2 km/h (0 Bft) 2 min 0,0 km/h (0 Bft)
06.01.2010 10:46 8,6 C -5,5 C 0,0 UV-I 7,6 C 40 % 91 % 100 % 1001,2 hPa 0,0 l/m 0,5 km/h (0 Bft) 2 min 0,0 km/h (0 Bft)
06.01.2010 10:50 8,6 C -5,3 C 0,0 UV-I 8,0 C 40 % 91 % 100 % 1001,2 hPa 0,0 l/m 0,5 km/h (0 Bft) 2 min 0,0 km/h (0 Bft)
06.01.2010 10:52 8,6 C -5,3 C 0,0 UV-I 8,7 C 39 % 91 % 100 % 1001,2 hPa 0,0 l/m 0,2 km/h (0 Bft) 2 min 0,0 km/h (0 Bft)
06.01.2010 11:00 8,6 C -5,3 C 0,1 UV-I 9,0 C 40 % 90 % 100 % 1001,2 hPa 0,0 l/m 0,2 km/h (0 Bft) 2 min 0,0 km/h (0 Bft)
06.01.2010 11:02 8,6 C -4,9 C 0,0 UV-I 8,7 C 39 % 91 % 100 % 1001,2 hPa 0,0 l/m 0,7 km/h (0 Bft) 2 min 3,6 km/h (1 Bft)
06.01.2010 11:04 8,7 C -4,9 C 0,0 UV-I 8,5 C 39 % 91 % 100 % 1001,2 hPa 0,0 l/m 0,5 km/h (0 Bft) 2 min 0,0 km/h (0 Bft)
06.01.2010 11:06 8,7 C -4,9 C 0,0 UV-I 8,4 C 39 % 90 % 100 % 1001,2 hPa 0,0 l/m 0,2 km/h (0 Bft) 2 min 0,0 km/h (0 Bft)
06.01.2010 11:08 8,7 C -4,9 C 0,0 UV-I 8,6 C 39 % 90 % 100 % 1001,2 hPa 0,0 l/m 0,5 km/h (0 Bft) 2 min 4,3 km/h (1 Bft)
06.01.2010 11:10 8,7 C -4,9 C 0,0 UV-I 8,6 C 39 % 90 % 100 % 1001,2 hPa 0,0 l/m 0,5 km/h (0 Bft) 2 min 2,6 km/h (1 Bft)
06.01.2010 11:14 8,7 C -4,7 C 0,0 UV-I 8,2 C 39 % 90 % 100 % 1001,4 hPa 0,0 l/m 1,4 km/h (1 Bft) 2 min 6,3 km/h (2 Bft)
06.01.2010 11:18 8,7 C -4,4 C 0,0 UV-I 7,2 C 39 % 90 % 100 % 1001,4 hPa 0,0 l/m 2,9 km/h (1 Bft) 2 min 6,7 km/h (2 Bft)
06.01.2010 11:20 8,7 C -4,4 C 0,0 UV-I 6,3 C 39 % 90 % 100 % 1001,4 hPa 0,0 l/m 3,8 km/h (1 Bft) 2 min 7,7 km/h (2 Bft)
06.01.2010 11:22 8,7 C -4,3 C 0,0 UV-I 4,8 C 39 % 89 % 100 % 1001,4 hPa 0,0 l/m 4,8 km/h (1 Bft) 2 min 10,1 km/h (2 Bft)
06.01.2010 11:24 8,7 C -4,1 C 0,0 UV-I 3,3 C 39 % 90 % 94 % 1001,4 hPa 0,0 l/m 5,1 km/h (1 Bft) 2 min 3,8 km/h (1 Bft)
06.01.2010 11:26 8,7 C -4,1 C 0,0 UV-I 2,7 C 39 % 89 % 77 % 1001,4 hPa 0,0 l/m 4,8 km/h (1 Bft) 2 min 3,8 km/h (1 Bft)
06.01.2010 11:28 8,7 C -4,1 C 0,0 UV-I 2,5 C 39 % 89 % 71 % 1001,4 hPa 0,0 l/m 4,1 km/h (1 Bft) 2 min 0,0 km/h (0 Bft)
06.01.2010 11:30 8,6 C -4,1 C 0,0 UV-I 2,7 C 39 % 89 % 77 % 1001,4 hPa 0,0 l/m 3,1 km/h (1 Bft) 2 min 0,0 km/h (0 Bft)
06.01.2010 11:32 8,6 C -4,1 C 0,0 UV-I 3,1 C 39 % 89 % 89 % 1001,4 hPa 0,0 l/m 2,4 km/h (1 Bft) 2 min 4,1 km/h (1 Bft)
06.01.2010 11:34 8,6 C -4,1 C 0,0 UV-I 3,8 C 39 % 89 % 100 % 1001,2 hPa 0,0 l/m 1,2 km/h (1 Bft) 2 min 0,0 km/h (0 Bft)
06.01.2010 11:36 8,6 C -3,9 C 0,0 UV-I 4,5 C 39 % 89 % 100 % 1001,2 hPa 0,0 l/m 0,7 km/h (0 Bft) 2 min 3,4 km/h (1 Bft)
06.01.2010 11:38 8,6 C -3,7 C 0,0 UV-I 4,9 C 39 % 89 % 100 % 1001,2 hPa 0,0 l/m 0,7 km/h (0 Bft) 2 min 0,0 km/h (0 Bft)
06.01.2010 11:42 8,8 C -3,7 C 0,0 UV-I 5,5 C 39 % 89 % 100 % 1001,2 hPa 0,0 l/m 1,0 km/h (0 Bft) 2 min 0,0 km/h (0 Bft)
06.01.2010 11:44 8,8 C -3,6 C 0,0 UV-I 4,9 C 39 % 88 % 100 % 1001,2 hPa 0,0 l/m 1,0 km/h (0 Bft) 2 min 5,1 km/h (1 Bft)
06.01.2010 11:46 8,8 C -3,5 C 0,0 UV-I 4,2 C 39 % 88 % 100 % 1001,2 hPa 0,0 l/m 1,2 km/h (1 Bft) 2 min 0,0 km/h (0 Bft)
06.01.2010 11:48 8,8 C -3,5 C 0,0 UV-I 3,9 C 39 % 88 % 100 % 1001,2 hPa 0,0 l/m 1,0 km/h (0 Bft) 2 min 0,0 km/h (0 Bft)
06.01.2010 11:50 8,8 C -3,3 C 0,0 UV-I 3,3 C 39 % 88 % 94 % 1001,2 hPa 0,0 l/m 1,2 km/h (1 Bft) 2 min 0,0 km/h (0 Bft)
06.01.2010 11:52 8,8 C -3,3 C 0,0 UV-I 3,1 C 39 % 88 % 89 % 1001,2 hPa 0,0 l/m 1,2 km/h (1 Bft) 2 min 4,3 km/h (1 Bft)
06.01.2010 11:54 8,8 C -3,4 C 0,0 UV-I 3,0 C 39 % 88 % 86 % 1001,0 hPa 0,0 l/m 1,0 km/h (0 Bft) 2 min 0,0 km/h (0 Bft)
06.01.2010 11:56 8,8 C -3,3 C 0,0 UV-I 3,1 C 39 % 87 % 89 % 1001,0 hPa 0,0 l/m 0,5 km/h (0 Bft) 2 min 0,0 km/h (0 Bft)
06.01.2010 11:58 8,8 C -3,3 C 0,0 UV-I 3,4 C 39 % 87 % 97 % 1001,0 hPa 0,0 l/m 0,5 km/h (0 Bft) 2 min 2,4 km/h (1 Bft)
06.01.2010 12:00 8,8 C -3,2 C 0,0 UV-I 3,3 C 39 % 87 % 94 % 1001,0 hPa 0,0 l/m 0,5 km/h (0 Bft) 2 min 0,0 km/h (0 Bft)
06.01.2010 12:02 8,8 C -3,2 C 0,1 UV-I 3,2 C 39 % 87 % 91 % 1001,0 hPa 0,0 l/m 0,7 km/h (0 Bft) 2 min 0,0 km/h (0 Bft)
06.01.2010 12:06 8,9 C -3,1 C 0,1 UV-I 2,5 C 39 % 87 % 71 % 1001,0 hPa 0,0 l/m 1,2 km/h (1 Bft) 2 min 5,1 km/h (1 Bft)
06.01.2010 12:08 8,9 C -2,9 C 0,0 UV-I 2,1 C 39 % 87 % 60 % 1001,0 hPa 0,0 l/m 1,4 km/h (1 Bft) 0 min 0,0 km/h (0 Bft)
06.01.2010 12:10 8,8 C -2,9 C 0,0 UV-I 1,9 C 39 % 87 % 54 % 1001,0 hPa 0,0 l/m 1,7 km/h (1 Bft) 0 min 5,5 km/h (1 Bft)
06.01.2010 12:12 8,8 C -2,9 C 0,0 UV-I 1,7 C 39 % 87 % 49 % 1001,0 hPa 0,0 l/m 1,7 km/h (1 Bft) 0 min 0,0 km/h (0 Bft)
06.01.2010 12:14 8,8 C -2,9 C 0,0 UV-I 1,5 C 39 % 87 % 43 % 1001,2 hPa 0,0 l/m 1,9 km/h (1 Bft) 0 min 6,5 km/h (2 Bft)
06.01.2010 12:16 9,0 C -2,9 C 0,0 UV-I 1,4 C 39 % 87 % 40 % 1001,2 hPa 0,0 l/m 2,2 km/h (1 Bft) 0 min 3,8 km/h (1 Bft)
06.01.2010 12:18 9,0 C -2,9 C 0,0 UV-I 1,2 C 39 % 86 % 34 % 1001,2 hPa 0,0 l/m 1,9 km/h (1 Bft) 0 min 0,0 km/h (0 Bft)
06.01.2010 12:20 9,0 C -2,9 C 0,0 UV-I 1,1 C 39 % 86 % 31 % 1001,2 hPa 0,0 l/m 1,4 km/h (1 Bft) 0 min 0,0 km/h (0 Bft)
06.01.2010 12:22 9,0 C -2,9 C 0,0 UV-I 1,1 C 39 % 86 % 31 % 1001,2 hPa 0,0 l/m 1,2 km/h (1 Bft) 0 min 0,0 km/h (0 Bft)
06.01.2010 12:26 9,0 C -2,7 C 0,0 UV-I 1,0 C 39 % 85 % 29 % 1001,2 hPa 0,0 l/m 0,5 km/h (0 Bft) 0 min 0,0 km/h (0 Bft)
06.01.2010 12:28 9,0 C -2,8 C 0,0 UV-I 1,1 C 39 % 85 % 31 % 1001,2 hPa 0,0 l/m 0,2 km/h (0 Bft) 0 min 0,0 km/h (0 Bft)
06.01.2010 12:30 9,0 C -2,7 C 0,0 UV-I 1,0 C 39 % 85 % 29 % 1001,2 hPa 0,0 l/m 0,5 km/h (0 Bft) 0 min 0,0 km/h (0 Bft)
06.01.2010 12:34 9,0 C -2,7 C 0,0 UV-I 1,1 C 39 % 85 % 31 % 1000,9 hPa 0,0 l/m 0,5 km/h (0 Bft) 0 min 0,0 km/h (0 Bft)
06.01.2010 12:36 8,9 C -2,7 C 0,0 UV-I 1,1 C 39 % 85 % 31 % 1000,9 hPa 0,0 l/m 0,5 km/h (0 Bft) 0 min 0,0 km/h (0 Bft)
06.01.2010 12:38 9,1 C -2,5 C 0,0 UV-I 1,0 C 39 % 85 % 29 % 1000,9 hPa 0,0 l/m 0,5 km/h (0 Bft) 0 min 0,0 km/h (0 Bft)
06.01.2010 12:40 9,1 C -2,5 C 0,0 UV-I 1,0 C 39 % 85 % 29 % 1000,9 hPa 0,0 l/m 0,0 km/h (0 Bft) 0 min 0,0 km/h (0 Bft)
06.01.2010 12:42 9,1 C -2,5 C 0,0 UV-I 1,1 C 39 % 85 % 31 % 1000,9 hPa 0,0 l/m 0,2 km/h (0 Bft) 0 min 2,4 km/h (1 Bft)
06.01.2010 12:44 9,1 C -2,5 C 0,0 UV-I 1,1 C 39 % 85 % 31 % 1000,9 hPa 0,0 l/m 0,2 km/h (0 Bft) 0 min 0,0 km/h (0 Bft)
06.01.2010 12:46 9,1 C -2,5 C 0,0 UV-I 1,2 C 39 % 85 % 34 % 1000,9 hPa 0,0 l/m 0,0 km/h (0 Bft) 0 min 0,0 km/h (0 Bft)
06.01.2010 12:48 9,1 C -2,5 C 0,0 UV-I 1,3 C 39 % 85 % 37 % 1000,9 hPa 0,0 l/m 0,0 km/h (0 Bft) 0 min 0,0 km/h (0 Bft)
06.01.2010 12:50 9,1 C -2,4 C 0,0 UV-I 1,3 C 39 % 85 % 37 % 1000,9 hPa 0,0 l/m 0,0 km/h (0 Bft) 0 min 0,0 km/h (0 Bft)
06.01.2010 12:52 9,2 C -2,4 C 0,0 UV-I 1,4 C 39 % 85 % 40 % 1000,9 hPa 0,0 l/m 0,0 km/h (0 Bft) 0 min 0,0 km/h (0 Bft)
06.01.2010 12:54 9,2 C -2,3 C 0,0 UV-I 1,5 C 39 % 85 % 43 % 1001,0 hPa 0,0 l/m 0,0 km/h (0 Bft) 0 min 0,0 km/h (0 Bft)
06.01.2010 12:56 9,2 C -2,3 C 0,0 UV-I 1,6 C 39 % 84 % 46 % 1001,0 hPa 0,0 l/m 0,2 km/h (0 Bft) 0 min 0,0 km/h (0 Bft)
06.01.2010 12:58 9,2 C -2,3 C 0,0 UV-I 1,7 C 39 % 84 % 49 % 1001,0 hPa 0,0 l/m 0,2 km/h (0 Bft) 0 min 0,0 km/h (0 Bft)
06.01.2010 13:00 9,2 C -2,3 C 0,0 UV-I 1,8 C 39 % 84 % 51 % 1001,0 hPa 0,0 l/m 0,2 km/h (0 Bft) 0 min 0,0 km/h (0 Bft)
06.01.2010 13:02 9,2 C -2,2 C 0,0 UV-I 1,7 C 39 % 84 % 49 % 1001,0 hPa 0,0 l/m 0,2 km/h (0 Bft) 0 min 0,0 km/h (0 Bft)
06.01.2010 13:04 9,2 C -2,1 C 0,0 UV-I 1,7 C 39 % 84 % 49 % 1001,0 hPa 0,0 l/m 0,2 km/h (0 Bft) 0 min 0,0 km/h (0 Bft)
06.01.2010 13:05 9,1 C -2,1 C 0,0 UV-I 1,8 C 39 % 84 % 51 % 1001,0 hPa 0,0 l/m 0,0 km/h (0 Bft) 0 min 0,0 km/h (0 Bft)
06.01.2010 13:10 9,3 C -1,9 C 0,0 UV-I 2,2 C 39 % 84 % 63 % 1001,0 hPa 0,0 l/m 0,0 km/h (0 Bft) 0 min 0,0 km/h (0 Bft)
06.01.2010 13:13 9,2 C -1,9 C 0,0 UV-I 2,4 C 39 % 84 % 69 % 1001,2 hPa 0,0 l/m 0,0 km/h (0 Bft) 2 min 0,0 km/h (0 Bft)
06.01.2010 13:16 9,2 C -1,7 C 0,0 UV-I 2,3 C 39 % 83 % 66 % 1001,2 hPa 0,0 l/m 0,0 km/h (0 Bft) 0 min 0,0 km/h (0 Bft)
06.01.2010 13:18 9,2 C -1,7 C 0,0 UV-I 2,2 C 39 % 83 % 63 % 1001,2 hPa 0,0 l/m 0,2 km/h (0 Bft) 0 min 0,0 km/h (0 Bft)
06.01.2010 13:20 9,4 C -1,7 C 0,0 UV-I 2,1 C 39 % 83 % 60 % 1001,2 hPa 0,0 l/m 0,2 km/h (0 Bft) 0 min 0,0 km/h (0 Bft)
06.01.2010 13:22 9,4 C -1,7 C 0,0 UV-I 2,0 C 39 % 83 % 57 % 1001,2 hPa 0,0 l/m 0,2 km/h (0 Bft) 0 min 0,0 km/h (0 Bft)
06.01.2010 13:24 9,4 C -1,8 C 0,0 UV-I 1,9 C 39 % 83 % 54 % 1001,2 hPa 0,0 l/m 0,5 km/h (0 Bft) 0 min 0,0 km/h (0 Bft)
06.01.2010 13:26 9,3 C -1,8 C 0,0 UV-I 1,7 C 39 % 83 % 49 % 1001,2 hPa 0,0 l/m 0,5 km/h (0 Bft) 0 min 0,0 km/h (0 Bft)
06.01.2010 13:28 9,4 C -1,7 C 0,0 UV-I 1,5 C 39 % 83 % 43 % 1001,2 hPa 0,0 l/m 0,2 km/h (0 Bft) 0 min 0,0 km/h (0 Bft)
06.01.2010 13:30 9,4 C -1,8 C 0,0 UV-I 1,4 C 39 % 83 % 40 % 1001,2 hPa 0,0 l/m 0,2 km/h (0 Bft) 0 min 0,0 km/h (0 Bft)
06.01.2010 13:32 9,3 C -1,7 C 0,0 UV-I 1,2 C 39 % 82 % 34 % 1001,2 hPa 0,0 l/m 0,2 km/h (0 Bft) 0 min 0,0 km/h (0 Bft)
06.01.2010 13:34 9,3 C -1,8 C 0,0 UV-I 1,1 C 39 % 82 % 31 % 1001,1 hPa 0,0 l/m 0,0 km/h (0 Bft) 0 min 0,0 km/h (0 Bft)
06.01.2010 13:36 9,3 C -1,7 C 0,0 UV-I 1,0 C 38 % 82 % 29 % 1001,1 hPa 0,0 l/m 0,2 km/h (0 Bft) 0 min 0,0 km/h (0 Bft)
06.01.2010 13:38 9,3 C -1,7 C 0,0 UV-I 0,9 C 39 % 82 % 26 % 1001,1 hPa 0,0 l/m 0,2 km/h (0 Bft) 0 min 0,0 km/h (0 Bft)
06.01.2010 13:40 9,5 C -1,7 C 0,0 UV-I 0,9 C 38 % 82 % 26 % 1001,1 hPa 0,0 l/m 0,2 km/h (0 Bft) 0 min 0,0 km/h (0 Bft)
06.01.2010 13:42 9,5 C -1,7 C 0,0 UV-I 0,9 C 38 % 82 % 26 % 1001,1 hPa 0,0 l/m 0,2 km/h (0 Bft) 0 min 0,0 km/h (0 Bft)
06.01.2010 13:44 9,3 C -1,7 C 0,0 UV-I 0,9 C 38 % 82 % 26 % 1001,1 hPa 0,0 l/m 0,2 km/h (0 Bft) 0 min 3,1 km/h (1 Bft)
06.01.2010 13:46 9,3 C -1,6 C 0,0 UV-I 0,8 C 38 % 82 % 23 % 1001,1 hPa 0,0 l/m 0,5 km/h (0 Bft) 0 min 0,0 km/h (0 Bft)
06.01.2010 13:48 9,3 C -1,7 C 0,0 UV-I 0,9 C 39 % 82 % 26 % 1001,1 hPa 0,0 l/m 0,5 km/h (0 Bft) 0 min 0,0 km/h (0 Bft)
06.01.2010 13:50 9,5 C -1,7 C 0,0 UV-I 0,9 C 38 % 82 % 26 % 1001,1 hPa 0,0 l/m 0,5 km/h (0 Bft) 0 min 0,0 km/h (0 Bft)
06.01.2010 13:52 9,5 C -1,6 C 0,0 UV-I 0,8 C 39 % 82 % 23 % 1001,1 hPa 0,0 l/m 0,7 km/h (0 Bft) 0 min 0,0 km/h (0 Bft)
06.01.2010 13:54 9,5 C -1,6 C 0,0 UV-I 0,8 C 39 % 82 % 23 % 1001,1 hPa 0,0 l/m 0,5 km/h (0 Bft) 0 min 0,0 km/h (0 Bft)
06.01.2010 13:56 9,4 C -1,6 C 0,0 UV-I 0,8 C 39 % 82 % 23 % 1001,1 hPa 0,0 l/m 0,2 km/h (0 Bft) 0 min 0,0 km/h (0 Bft)
06.01.2010 13:58 9,5 C -1,6 C 0,0 UV-I 0,9 C 39 % 82 % 26 % 1001,1 hPa 0,0 l/m 0,2 km/h (0 Bft) 0 min 0,0 km/h (0 Bft)
06.01.2010 14:00 9,5 C -1,5 C 0,0 UV-I 0,8 C 39 % 82 % 23 % 1001,1 hPa 0,0 l/m 0,2 km/h (0 Bft) 0 min 0,0 km/h (0 Bft)
06.01.2010 14:02 9,5 C -1,5 C 0,0 UV-I 0,8 C 39 % 81 % 23 % 1001,1 hPa 0,0 l/m 0,5 km/h (0 Bft) 0 min 3,1 km/h (1 Bft)
06.01.2010 14:04 9,4 C -1,3 C 0,0 UV-I 0,6 C 39 % 81 % 17 % 1001,1 hPa 0,0 l/m 0,7 km/h (0 Bft) 0 min 3,8 km/h (1 Bft)
06.01.2010 14:06 9,4 C -1,3 C 0,0 UV-I 0,6 C 38 % 81 % 17 % 1001,1 hPa 0,0 l/m 1,0 km/h (0 Bft) 0 min 3,4 km/h (1 Bft)
06.01.2010 14:08 9,4 C -1,5 C 0,0 UV-I 0,8 C 38 % 81 % 23 % 1001,1 hPa 0,0 l/m 1,4 km/h (1 Bft) 0 min 4,8 km/h (1 Bft)
06.01.2010 14:10 9,4 C -1,3 C 0,0 UV-I 0,6 C 39 % 81 % 17 % 1001,1 hPa 0,0 l/m 1,7 km/h (1 Bft) 0 min 4,8 km/h (1 Bft)
06.01.2010 14:12 9,4 C -1,5 C 0,0 UV-I 0,8 C 39 % 81 % 23 % 1001,1 hPa 0,0 l/m 1,9 km/h (1 Bft) 0 min 3,4 km/h (1 Bft)
06.01.2010 14:14 9,5 C -1,5 C 0,0 UV-I 0,7 C 39 % 81 % 20 % 1001,5 hPa 0,0 l/m 1,9 km/h (1 Bft) 0 min 0,0 km/h (0 Bft)
06.01.2010 14:16 9,5 C -1,5 C 0,0 UV-I 0,7 C 38 % 81 % 20 % 1001,5 hPa 0,0 l/m 1,4 km/h (1 Bft) 0 min 0,0 km/h (0 Bft)
06.01.2010 14:18 9,4 C -1,3 C 0,0 UV-I 0,4 C 39 % 81 % 11 % 1001,5 hPa 0,0 l/m 1,4 km/h (1 Bft) 0 min 0,0 km/h (0 Bft)
06.01.2010 14:20 9,4 C -1,3 C 0,0 UV-I 0,4 C 39 % 81 % 11 % 1001,5 hPa 0,0 l/m 1,2 km/h (1 Bft) 0 min 2,9 km/h (1 Bft)
06.01.2010 14:22 9,5 C -1,3 C 0,0 UV-I 0,4 C 39 % 81 % 11 % 1001,5 hPa 0,0 l/m 1,2 km/h (1 Bft) 0 min 3,8 km/h (1 Bft)
06.01.2010 14:24 9,5 C -1,3 C 0,0 UV-I 0,4 C 38 % 81 % 11 % 1001,5 hPa 0,0 l/m 1,0 km/h (0 Bft) 0 min 5,3 km/h (1 Bft)
06.01.2010 14:26 9,5 C -1,4 C 0,0 UV-I 0,4 C 39 % 81 % 11 % 1001,5 hPa 0,0 l/m 1,2 km/h (1 Bft) 0 min 0,0 km/h (0 Bft)
06.01.2010 14:28 9,5 C -1,3 C 0,0 UV-I 0,3 C 39 % 81 % 9 % 1001,5 hPa 0,0 l/m 1,0 km/h (0 Bft) 0 min 0,0 km/h (0 Bft)
06.01.2010 14:30 9,5 C -1,4 C 0,0 UV-I 0,3 C 39 % 81 % 9 % 1001,5 hPa 0,0 l/m 1,2 km/h (1 Bft) 0 min 2,9 km/h (1 Bft)
06.01.2010 14:32 9,5 C -1,3 C 0,0 UV-I 0,2 C 39 % 81 % 6 % 1001,5 hPa 0,0 l/m 1,2 km/h (1 Bft) 0 min 3,4 km/h (1 Bft)
06.01.2010 14:34 9,5 C -1,4 C 0,0 UV-I 0,3 C 39 % 81 % 9 % 1001,0 hPa 0,0 l/m 1,0 km/h (0 Bft) 0 min 0,0 km/h (0 Bft)
06.01.2010 14:36 9,5 C -1,4 C 0,0 UV-I 0,3 C 39 % 81 % 9 % 1001,0 hPa 0,0 l/m 1,0 km/h (0 Bft) 0 min 0,0 km/h (0 Bft)
06.01.2010 14:38 9,5 C -1,4 C 0,0 UV-I 0,3 C 39 % 81 % 9 % 1001,0 hPa 0,0 l/m 0,7 km/h (0 Bft) 0 min 0,0 km/h (0 Bft)
06.01.2010 14:40 9,5 C -1,4 C 0,0 UV-I 0,2 C 39 % 81 % 6 % 1001,0 hPa 0,0 l/m 0,7 km/h (0 Bft) 0 min 0,0 km/h (0 Bft)
06.01.2010 14:42 9,5 C -1,3 C 0,0 UV-I 0,2 C 39 % 81 % 6 % 1001,0 hPa 0,0 l/m 0,5 km/h (0 Bft) 0 min 0,0 km/h (0 Bft)
06.01.2010 14:44 9,5 C -1,3 C 0,0 UV-I 0,2 C 39 % 81 % 6 % 1001,0 hPa 0,0 l/m 0,5 km/h (0 Bft) 0 min 0,0 km/h (0 Bft)
06.01.2010 14:46 9,5 C -1,3 C 0,0 UV-I 0,2 C 39 % 81 % 6 % 1001,0 hPa 0,0 l/m 0,2 km/h (0 Bft) 0 min 2,4 km/h (1 Bft)
06.01.2010 14:48 9,5 C -1,3 C 0,0 UV-I 0,2 C 39 % 81 % 6 % 1001,0 hPa 0,0 l/m 0,2 km/h (0 Bft) 0 min 0,0 km/h (0 Bft)
06.01.2010 14:50 9,5 C -1,3 C 0,0 UV-I 0,2 C 39 % 81 % 6 % 1001,0 hPa 0,0 l/m 0,2 km/h (0 Bft) 0 min 0,0 km/h (0 Bft)
06.01.2010 14:52 9,5 C -1,3 C 0,0 UV-I 0,1 C 39 % 81 % 3 % 1001,0 hPa 0,0 l/m 0,0 km/h (0 Bft) 0 min 0,0 km/h (0 Bft)
06.01.2010 14:54 9,3 C -1,3 C 0,0 UV-I 0,1 C 39 % 81 % 3 % 1001,0 hPa 0,0 l/m 0,0 km/h (0 Bft) 0 min 0,0 km/h (0 Bft)
06.01.2010 14:56 9,5 C -1,3 C 0,0 UV-I 0,0 C 39 % 81 % 0 % 1001,0 hPa 0,0 l/m 0,0 km/h (0 Bft) 0 min 0,0 km/h (0 Bft)
06.01.2010 14:58 9,3 C -1,3 C 0,0 UV-I 0,0 C 39 % 81 % 0 % 1001,0 hPa 0,0 l/m 0,0 km/h (0 Bft) 0 min 0,0 km/h (0 Bft)
06.01.2010 15:00 9,3 C -1,3 C 0,0 UV-I 0,0 C 39 % 81 % 0 % 1001,0 hPa 0,0 l/m 0,0 km/h (0 Bft) 0 min 0,0 km/h (0 Bft)
06.01.2010 15:02 9,4 C -1,3 C 0,0 UV-I 0,0 C 39 % 81 % 0 % 1001,0 hPa 0,0 l/m 0,0 km/h (0 Bft) 0 min 0,0 km/h (0 Bft)
06.01.2010 15:06 9,4 C -1,3 C 0,0 UV-I 0,0 C 39 % 81 % 0 % 1001,0 hPa 0,0 l/m 0,0 km/h (0 Bft) 0 min 0,0 km/h (0 Bft)
06.01.2010 15:08 9,4 C -1,3 C 0,0 UV-I 0,0 C 39 % 81 % 0 % 1001,0 hPa 0,0 l/m 0,0 km/h (0 Bft) 0 min 0,0 km/h (0 Bft)
06.01.2010 15:10 9,4 C -1,3 C 0,0 UV-I 0,0 C 39 % 81 % 0 % 1001,0 hPa 0,0 l/m 0,0 km/h (0 Bft) 0 min 0,0 km/h (0 Bft)
06.01.2010 15:12 9,4 C -1,3 C 0,0 UV-I 0,0 C 39 % 81 % 0 % 1001,0 hPa 0,0 l/m 0,0 km/h (0 Bft) 0 min 0,0 km/h (0 Bft)
06.01.2010 15:14 9,4 C -1,3 C 0,0 UV-I 0,0 C 39 % 81 % 0 % 1001,1 hPa 0,0 l/m 0,0 km/h (0 Bft) 0 min 0,0 km/h (0 Bft)
06.01.2010 15:16 9,4 C -1,3 C 0,0 UV-I 0,0 C 39 % 81 % 0 % 1001,1 hPa 0,0 l/m 0,0 km/h (0 Bft) 0 min 0,0 km/h (0 Bft)
06.01.2010 15:18 9,4 C -1,3 C 0,0 UV-I 0,0 C 39 % 82 % 0 % 1001,1 hPa 0,0 l/m 0,0 km/h (0 Bft) 0 min 0,0 km/h (0 Bft)
06.01.2010 15:20 9,4 C -1,3 C 0,0 UV-I 0,0 C 39 % 82 % 0 % 1001,1 hPa 0,0 l/m 0,0 km/h (0 Bft) 0 min 0,0 km/h (0 Bft)
06.01.2010 15:22 9,4 C -1,3 C 0,0 UV-I 0,0 C 39 % 81 % 0 % 1001,1 hPa 0,0 l/m 0,0 km/h (0 Bft) 0 min 0,0 km/h (0 Bft)
06.01.2010 15:24 9,4 C -1,3 C 0,0 UV-I 0,0 C 39 % 81 % 0 % 1001,1 hPa 0,0 l/m 0,0 km/h (0 Bft) 0 min 0,0 km/h (0 Bft)
06.01.2010 15:26 9,4 C -1,3 C 0,0 UV-I 0,0 C 39 % 82 % 0 % 1001,1 hPa 0,0 l/m 0,0 km/h (0 Bft) 0 min 0,0 km/h (0 Bft)
06.01.2010 15:28 9,4 C -1,3 C 0,0 UV-I 0,0 C 39 % 82 % 0 % 1001,1 hPa 0,0 l/m 0,0 km/h (0 Bft) 0 min 0,0 km/h (0 Bft)
06.01.2010 15:30 9,3 C -1,1 C 0,0 UV-I 0,0 C 39 % 82 % 0 % 1001,1 hPa 0,0 l/m 0,0 km/h (0 Bft) 0 min 0,0 km/h (0 Bft)
06.01.2010 15:32 9,4 C -1,3 C 0,0 UV-I 0,0 C 39 % 82 % 0 % 1001,1 hPa 0,0 l/m 0,0 km/h (0 Bft) 0 min 0,0 km/h (0 Bft)
06.01.2010 15:34 9,4 C -1,3 C 0,0 UV-I 0,0 C 39 % 82 % 0 % 1001,2 hPa 0,0 l/m 0,0 km/h (0 Bft) 0 min 0,0 km/h (0 Bft)
06.01.2010 15:36 9,4 C -1,2 C 0,0 UV-I 0,0 C 39 % 82 % 0 % 1001,2 hPa 0,0 l/m 0,0 km/h (0 Bft) 0 min 0,0 km/h (0 Bft)
06.01.2010 15:38 9,4 C -1,2 C 0,0 UV-I 0,0 C 39 % 82 % 0 % 1001,2 hPa 0,0 l/m 0,0 km/h (0 Bft) 0 min 0,0 km/h (0 Bft)
06.01.2010 15:40 9,4 C -1,1 C 0,0 UV-I 0,0 C 39 % 82 % 0 % 1001,2 hPa 0,0 l/m 0,0 km/h (0 Bft) 0 min 0,0 km/h (0 Bft)
06.01.2010 15:42 9,4 C -1,2 C 0,0 UV-I 0,0 C 39 % 82 % 0 % 1001,2 hPa 0,0 l/m 0,0 km/h (0 Bft) 0 min 0,0 km/h (0 Bft)
06.01.2010 15:44 9,4 C -1,2 C 0,0 UV-I 0,0 C 39 % 82 % 0 % 1001,2 hPa 0,0 l/m 0,0 km/h (0 Bft) 0 min 0,0 km/h (0 Bft)
06.01.2010 15:46 9,4 C -1,2 C 0,0 UV-I 0,0 C 39 % 82 % 0 % 1001,2 hPa 0,0 l/m 0,0 km/h (0 Bft) 0 min 0,0 km/h (0 Bft)
06.01.2010 15:48 9,4 C -1,2 C 0,0 UV-I 0,0 C 39 % 82 % 0 % 1001,2 hPa 0,0 l/m 0,0 km/h (0 Bft) 0 min 0,0 km/h (0 Bft)
06.01.2010 15:50 9,4 C -1,2 C 0,0 UV-I 0,0 C 39 % 82 % 0 % 1001,2 hPa 0,0 l/m 0,0 km/h (0 Bft) 0 min 0,0 km/h (0 Bft)
06.01.2010 15:52 9,4 C -1,2 C 0,0 UV-I 0,0 C 39 % 82 % 0 % 1001,2 hPa 0,0 l/m 0,0 km/h (0 Bft) 0 min 0,0 km/h (0 Bft)
06.01.2010 15:54 9,4 C -1,2 C 0,0 UV-I 0,0 C 39 % 82 % 0 % 1001,2 hPa 0,0 l/m 0,0 km/h (0 Bft) 0 min 0,0 km/h (0 Bft)
06.01.2010 15:56 9,4 C -1,2 C 0,0 UV-I 0,0 C 39 % 82 % 0 % 1001,2 hPa 0,0 l/m 0,0 km/h (0 Bft) 0 min 0,0 km/h (0 Bft)
06.01.2010 15:58 9,4 C -1,1 C 0,0 UV-I 0,0 C 40 % 82 % 0 % 1001,2 hPa 0,0 l/m 0,0 km/h (0 Bft) 0 min 0,0 km/h (0 Bft)
06.01.2010 16:00 9,4 C -1,1 C 0,0 UV-I 0,0 C 40 % 82 % 0 % 1001,2 hPa 0,0 l/m 0,0 km/h (0 Bft) 0 min 0,0 km/h (0 Bft)
06.01.2010 16:02 9,4 C -1,2 C 0,0 UV-I 0,0 C 40 % 83 % 0 % 1001,2 hPa 0,0 l/m 0,0 km/h (0 Bft) 0 min 0,0 km/h (0 Bft)
06.01.2010 16:04 9,4 C -1,1 C 0,0 UV-I 0,0 C 40 % 83 % 0 % 1001,2 hPa 0,0 l/m 0,0 km/h (0 Bft) 0 min 0,0 km/h (0 Bft)
06.01.2010 16:06 9,4 C -1,3 C 0,0 UV-I 0,0 C 40 % 83 % 0 % 1001,2 hPa 0,0 l/m 0,0 km/h (0 Bft) 0 min 0,0 km/h (0 Bft)
06.01.2010 16:08 9,4 C -1,3 C 0,0 UV-I 0,0 C 40 % 82 % 0 % 1001,2 hPa 0,0 l/m 0,0 km/h (0 Bft) 0 min 0,0 km/h (0 Bft)
06.01.2010 16:10 9,4 C -1,3 C 0,0 UV-I 0,0 C 40 % 82 % 0 % 1001,2 hPa 0,0 l/m 0,0 km/h (0 Bft) 0 min 0,0 km/h (0 Bft)
06.01.2010 16:12 9,4 C -1,3 C 0,0 UV-I 0,0 C 40 % 82 % 0 % 1001,2 hPa 0,0 l/m 0,0 km/h (0 Bft) 0 min 0,0 km/h (0 Bft)
06.01.2010 16:14 9,4 C -1,3 C 0,0 UV-I 0,0 C 40 % 82 % 0 % 1001,2 hPa 0,0 l/m 0,0 km/h (0 Bft) 0 min 0,0 km/h (0 Bft)
06.01.2010 16:16 9,4 C -1,3 C 0,0 UV-I 0,0 C 40 % 82 % 0 % 1001,2 hPa 0,0 l/m 0,0 km/h (0 Bft) 0 min 0,0 km/h (0 Bft)
06.01.2010 16:18 9,4 C -1,3 C 0,0 UV-I 0,0 C 40 % 82 % 0 % 1001,2 hPa 0,0 l/m 0,2 km/h (0 Bft) 0 min 0,0 km/h (0 Bft)
06.01.2010 16:20 9,4 C -1,3 C 0,0 UV-I 0,0 C 40 % 82 % 0 % 1001,2 hPa 0,0 l/m 0,2 km/h (0 Bft) 0 min 0,0 km/h (0 Bft)
06.01.2010 16:22 9,4 C -1,3 C 0,0 UV-I 0,0 C 40 % 82 % 0 % 1001,2 hPa 0,0 l/m 0,2 km/h (0 Bft) 0 min 0,0 km/h (0 Bft)
06.01.2010 16:24 9,4 C -1,3 C 0,0 UV-I 0,0 C 40 % 82 % 0 % 1001,2 hPa 0,0 l/m 0,2 km/h (0 Bft) 0 min 0,0 km/h (0 Bft)
06.01.2010 16:26 9,4 C -1,4 C 0,0 UV-I 0,0 C 40 % 82 % 0 % 1001,2 hPa 0,0 l/m 0,2 km/h (0 Bft) 0 min 0,0 km/h (0 Bft)
06.01.2010 16:28 9,4 C -1,4 C 0,0 UV-I 0,0 C 40 % 82 % 0 % 1001,2 hPa 0,0 l/m 0,0 km/h (0 Bft) 0 min 0,0 km/h (0 Bft)
06.01.2010 16:30 9,4 C -1,3 C 0,0 UV-I 0,0 C 40 % 82 % 0 % 1001,2 hPa 0,0 l/m 0,0 km/h (0 Bft) 0 min 0,0 km/h (0 Bft)
06.01.2010 16:32 9,4 C -1,3 C 0,0 UV-I 0,0 C 40 % 82 % 0 % 1001,2 hPa 0,0 l/m 0,2 km/h (0 Bft) 0 min 2,4 km/h (1 Bft)
06.01.2010 16:34 9,2 C -1,5 C 0,0 UV-I 0,0 C 40 % 82 % 0 % 1001,2 hPa 0,0 l/m 0,2 km/h (0 Bft) 0 min 0,0 km/h (0 Bft)
06.01.2010 16:36 9,4 C -1,3 C 0,0 UV-I 0,0 C 40 % 82 % 0 % 1001,2 hPa 0,0 l/m 0,2 km/h (0 Bft) 0 min 0,0 km/h (0 Bft)
06.01.2010 16:38 9,2 C -1,5 C 0,0 UV-I 0,0 C 40 % 82 % 0 % 1001,2 hPa 0,0 l/m 0,2 km/h (0 Bft) 0 min 0,0 km/h (0 Bft)
06.01.2010 16:40 9,2 C -1,5 C 0,0 UV-I 0,0 C 40 % 82 % 0 % 1001,2 hPa 0,0 l/m 0,2 km/h (0 Bft) 0 min 0,0 km/h (0 Bft)
06.01.2010 16:42 9,2 C -1,5 C 0,0 UV-I 0,0 C 40 % 82 % 0 % 1001,2 hPa 0,0 l/m 0,2 km/h (0 Bft) 0 min 0,0 km/h (0 Bft)
06.01.2010 16:44 9,2 C -1,6 C 0,0 UV-I 0,0 C 40 % 82 % 0 % 1001,2 hPa 0,0 l/m 0,0 km/h (0 Bft) 0 min 0,0 km/h (0 Bft)
06.01.2010 16:46 9,2 C -1,6 C 0,0 UV-I 0,0 C 40 % 83 % 0 % 1001,2 hPa 0,0 l/m 0,0 km/h (0 Bft) 0 min 0,0 km/h (0 Bft)
06.01.2010 16:48 9,2 C -1,6 C 0,0 UV-I 0,0 C 40 % 83 % 0 % 1001,2 hPa 0,0 l/m 0,0 km/h (0 Bft) 0 min 0,0 km/h (0 Bft)
06.01.2010 16:50 9,2 C -1,7 C 0,0 UV-I 0,0 C 40 % 83 % 0 % 1001,2 hPa 0,0 l/m 0,0 km/h (0 Bft) 0 min 0,0 km/h (0 Bft)
06.01.2010 16:52 9,2 C -1,7 C 0,0 UV-I 0,0 C 40 % 83 % 0 % 1001,2 hPa 0,0 l/m 0,0 km/h (0 Bft) 0 min 0,0 km/h (0 Bft)
06.01.2010 16:54 9,2 C -1,7 C 0,0 UV-I 0,0 C 40 % 83 % 0 % 1001,6 hPa 0,0 l/m 0,0 km/h (0 Bft) 0 min 0,0 km/h (0 Bft)
06.01.2010 16:56 9,2 C -1,7 C 0,0 UV-I 0,0 C 40 % 83 % 0 % 1001,6 hPa 0,0 l/m 0,0 km/h (0 Bft) 0 min 0,0 km/h (0 Bft)
06.01.2010 16:58 9,3 C -1,7 C 0,0 UV-I 0,0 C 40 % 83 % 0 % 1001,6 hPa 0,0 l/m 0,0 km/h (0 Bft) 0 min 0,0 km/h (0 Bft)
06.01.2010 17:00 9,2 C -1,9 C 0,0 UV-I 0,0 C 40 % 83 % 0 % 1001,6 hPa 0,0 l/m 0,0 km/h (0 Bft) 0 min 0,0 km/h (0 Bft)
06.01.2010 17:02 9,3 C -1,9 C 0,0 UV-I 0,0 C 40 % 83 % 0 % 1001,6 hPa 0,0 l/m 0,0 km/h (0 Bft) 0 min 0,0 km/h (0 Bft)
06.01.2010 17:04 9,1 C -1,9 C 0,0 UV-I 0,0 C 40 % 84 % 0 % 1001,6 hPa 0,0 l/m 0,0 km/h (0 Bft) 0 min 0,0 km/h (0 Bft)
06.01.2010 17:06 9,1 C -1,9 C 0,0 UV-I 0,0 C 40 % 84 % 0 % 1001,6 hPa 0,0 l/m 0,0 km/h (0 Bft) 0 min 0,0 km/h (0 Bft)
06.01.2010 17:08 9,1 C -1,9 C 0,0 UV-I 0,0 C 40 % 84 % 0 % 1001,6 hPa 0,0 l/m 0,0 km/h (0 Bft) 0 min 0,0 km/h (0 Bft)
06.01.2010 17:10 9,1 C -2,0 C 0,0 UV-I 0,0 C 40 % 84 % 0 % 1001,6 hPa 0,0 l/m 0,0 km/h (0 Bft) 0 min 0,0 km/h (0 Bft)
06.01.2010 17:12 9,1 C -1,9 C 0,0 UV-I 0,0 C 40 % 84 % 0 % 1001,6 hPa 0,0 l/m 0,0 km/h (0 Bft) 0 min 0,0 km/h (0 Bft)
06.01.2010 17:14 9,1 C -2,1 C 0,0 UV-I 0,0 C 40 % 84 % 0 % 1001,6 hPa 0,0 l/m 0,0 km/h (0 Bft) 0 min 0,0 km/h (0 Bft)
06.01.2010 17:16 9,1 C -2,1 C 0,0 UV-I 0,0 C 40 % 84 % 0 % 1001,6 hPa 0,0 l/m 0,0 km/h (0 Bft) 0 min 0,0 km/h (0 Bft)
06.01.2010 17:18 9,2 C -2,1 C 0,0 UV-I 0,0 C 40 % 84 % 0 % 1001,6 hPa 0,0 l/m 0,0 km/h (0 Bft) 0 min 0,0 km/h (0 Bft)
06.01.2010 17:20 9,2 C -2,2 C 0,0 UV-I 0,0 C 40 % 84 % 0 % 1001,6 hPa 0,0 l/m 0,0 km/h (0 Bft) 0 min 0,0 km/h (0 Bft)
06.01.2010 17:22 9,2 C -2,1 C 0,0 UV-I 0,0 C 40 % 84 % 0 % 1001,6 hPa 0,0 l/m 0,0 km/h (0 Bft) 0 min 0,0 km/h (0 Bft)
06.01.2010 17:24 9,2 C -2,3 C 0,0 UV-I 0,0 C 40 % 84 % 0 % 1001,6 hPa 0,0 l/m 0,0 km/h (0 Bft) 0 min 0,0 km/h (0 Bft)
06.01.2010 17:26 9,2 C -2,3 C 0,0 UV-I 0,0 C 40 % 85 % 0 % 1001,6 hPa 0,0 l/m 0,0 km/h (0 Bft) 0 min 0,0 km/h (0 Bft)
06.01.2010 17:30 9,2 C -2,4 C 0,0 UV-I 0,0 C 40 % 85 % 0 % 1001,6 hPa 0,0 l/m 0,0 km/h (0 Bft) 0 min 0,0 km/h (0 Bft)
06.01.2010 17:32 9,2 C -2,3 C 0,0 UV-I 0,0 C 40 % 85 % 0 % 1001,6 hPa 0,0 l/m 0,0 km/h (0 Bft) 0 min 0,0 km/h (0 Bft)
06.01.2010 17:34 9,2 C -2,5 C 0,0 UV-I 0,0 C 40 % 85 % 0 % 1001,6 hPa 0,0 l/m 0,0 km/h (0 Bft) 0 min 0,0 km/h (0 Bft)
06.01.2010 17:36 9,2 C -2,5 C 0,0 UV-I 0,0 C 40 % 85 % 0 % 1001,6 hPa 0,0 l/m 0,0 km/h (0 Bft) 0 min 0,0 km/h (0 Bft)
06.01.2010 17:38 9,2 C -2,5 C 0,0 UV-I 0,0 C 40 % 85 % 0 % 1001,6 hPa 0,0 l/m 0,0 km/h (0 Bft) 0 min 0,0 km/h (0 Bft)
06.01.2010 17:40 9,2 C -2,6 C 0,0 UV-I 0,0 C 40 % 85 % 0 % 1001,6 hPa 0,0 l/m 0,0 km/h (0 Bft) 0 min 0,0 km/h (0 Bft)
06.01.2010 17:42 9,1 C -2,7 C 0,0 UV-I 0,0 C 41 % 85 % 0 % 1001,6 hPa 0,0 l/m 0,0 km/h (0 Bft) 0 min 0,0 km/h (0 Bft)
06.01.2010 17:44 9,1 C -2,7 C 0,0 UV-I 0,0 C 41 % 85 % 0 % 1001,6 hPa 0,0 l/m 0,0 km/h (0 Bft) 0 min 0,0 km/h (0 Bft)
06.01.2010 17:46 9,1 C -2,7 C 0,0 UV-I 0,0 C 41 % 85 % 0 % 1001,6 hPa 0,0 l/m 0,0 km/h (0 Bft) 0 min 0,0 km/h (0 Bft)
06.01.2010 17:48 9,1 C -2,7 C 0,0 UV-I 0,0 C 41 % 85 % 0 % 1001,6 hPa 0,0 l/m 0,0 km/h (0 Bft) 0 min 0,0 km/h (0 Bft)
06.01.2010 17:50 9,1 C -2,8 C 0,0 UV-I 0,0 C 41 % 86 % 0 % 1001,6 hPa 0,0 l/m 0,0 km/h (0 Bft) 0 min 0,0 km/h (0 Bft)
06.01.2010 17:52 9,1 C -2,8 C 0,0 UV-I 0,0 C 41 % 86 % 0 % 1001,6 hPa 0,0 l/m 0,0 km/h (0 Bft) 0 min 0,0 km/h (0 Bft)
06.01.2010 17:54 9,1 C -2,7 C 0,0 UV-I 0,0 C 41 % 86 % 0 % 1001,4 hPa 0,0 l/m 0,0 km/h (0 Bft) 0 min 0,0 km/h (0 Bft)
06.01.2010 17:56 9,1 C -2,9 C 0,0 UV-I 0,0 C 41 % 86 % 0 % 1001,4 hPa 0,0 l/m 0,0 km/h (0 Bft) 0 min 0,0 km/h (0 Bft)
06.01.2010 17:58 9,1 C -2,9 C 0,0 UV-I 0,0 C 41 % 86 % 0 % 1001,4 hPa 0,0 l/m 0,0 km/h (0 Bft) 0 min 0,0 km/h (0 Bft)
06.01.2010 18:00 9,1 C -2,9 C 0,0 UV-I 0,0 C 41 % 86 % 0 % 1001,4 hPa 0,0 l/m 0,0 km/h (0 Bft) 0 min 0,0 km/h (0 Bft)
06.01.2010 18:02 9,1 C -2,9 C 0,0 UV-I 0,0 C 41 % 86 % 0 % 1001,4 hPa 0,0 l/m 0,0 km/h (0 Bft) 0 min 0,0 km/h (0 Bft)
06.01.2010 18:04 9,1 C -2,9 C 0,0 UV-I 0,0 C 41 % 86 % 0 % 1001,4 hPa 0,0 l/m 0,0 km/h (0 Bft) 0 min 0,0 km/h (0 Bft)
06.01.2010 18:06 8,9 C -2,9 C 0,0 UV-I 0,0 C 41 % 87 % 0 % 1001,4 hPa 0,0 l/m 0,0 km/h (0 Bft) 0 min 0,0 km/h (0 Bft)
06.01.2010 18:08 8,9 C -2,9 C 0,0 UV-I 0,0 C 41 % 87 % 0 % 1001,4 hPa 0,0 l/m 0,0 km/h (0 Bft) 0 min 0,0 km/h (0 Bft)
06.01.2010 18:10 9,1 C -2,9 C 0,0 UV-I 0,0 C 41 % 87 % 0 % 1001,4 hPa 0,0 l/m 0,0 km/h (0 Bft) 0 min 0,0 km/h (0 Bft)
06.01.2010 18:12 9,1 C -3,0 C 0,0 UV-I 0,0 C 41 % 87 % 0 % 1001,4 hPa 0,0 l/m 0,0 km/h (0 Bft) 0 min 0,0 km/h (0 Bft)
06.01.2010 18:14 9,1 C -2,9 C 0,0 UV-I 0,0 C 41 % 87 % 0 % 1001,9 hPa 0,0 l/m 0,0 km/h (0 Bft) 0 min 0,0 km/h (0 Bft)
06.01.2010 18:16 8,9 C -2,9 C 0,0 UV-I 0,0 C 41 % 87 % 0 % 1001,9 hPa 0,0 l/m 0,0 km/h (0 Bft) 0 min 0,0 km/h (0 Bft)
06.01.2010 18:18 8,9 C -2,9 C 0,0 UV-I 0,0 C 41 % 87 % 0 % 1001,9 hPa 0,0 l/m 0,0 km/h (0 Bft) 0 min 0,0 km/h (0 Bft)
06.01.2010 18:20 8,9 C -3,1 C 0,0 UV-I 0,0 C 41 % 87 % 0 % 1001,9 hPa 0,0 l/m 0,0 km/h (0 Bft) 0 min 0,0 km/h (0 Bft)
06.01.2010 18:22 9,0 C -3,1 C 0,0 UV-I 0,0 C 41 % 87 % 0 % 1001,9 hPa 0,0 l/m 0,0 km/h (0 Bft) 0 min 0,0 km/h (0 Bft)
06.01.2010 18:24 8,9 C -3,1 C 0,0 UV-I 0,0 C 41 % 87 % 0 % 1001,9 hPa 0,0 l/m 0,0 km/h (0 Bft) 0 min 0,0 km/h (0 Bft)
06.01.2010 18:26 8,9 C -3,1 C 0,0 UV-I 0,0 C 41 % 87 % 0 % 1001,9 hPa 0,0 l/m 0,0 km/h (0 Bft) 0 min 0,0 km/h (0 Bft)
06.01.2010 18:28 9,0 C -3,1 C 0,0 UV-I 0,0 C 41 % 87 % 0 % 1001,9 hPa 0,0 l/m 0,0 km/h (0 Bft) 0 min 0,0 km/h (0 Bft)
06.01.2010 18:30 9,0 C -3,2 C 0,0 UV-I 0,0 C 41 % 87 % 0 % 1001,9 hPa 0,0 l/m 0,0 km/h (0 Bft) 0 min 0,0 km/h (0 Bft)
06.01.2010 18:34 9,0 C -3,2 C 0,0 UV-I 0,0 C 41 % 87 % 0 % 1001,5 hPa 0,0 l/m 0,0 km/h (0 Bft) 0 min 0,0 km/h (0 Bft)
06.01.2010 18:36 9,0 C -3,3 C 0,0 UV-I 0,0 C 41 % 87 % 0 % 1001,5 hPa 0,0 l/m 0,0 km/h (0 Bft) 0 min 0,0 km/h (0 Bft)
06.01.2010 18:38 9,0 C -3,3 C 0,0 UV-I 0,0 C 41 % 87 % 0 % 1001,5 hPa 0,0 l/m 0,0 km/h (0 Bft) 0 min 0,0 km/h (0 Bft)
06.01.2010 18:40 9,0 C -3,3 C 0,0 UV-I 0,0 C 41 % 87 % 0 % 1001,5 hPa 0,0 l/m 0,0 km/h (0 Bft) 0 min 0,0 km/h (0 Bft)
06.01.2010 18:42 9,0 C -3,3 C 0,0 UV-I 0,0 C 41 % 88 % 0 % 1001,5 hPa 0,0 l/m 0,0 km/h (0 Bft) 0 min 0,0 km/h (0 Bft)
06.01.2010 18:44 9,0 C -3,3 C 0,0 UV-I 0,0 C 41 % 88 % 0 % 1001,5 hPa 0,0 l/m 0,0 km/h (0 Bft) 0 min 0,0 km/h (0 Bft)
06.01.2010 18:46 9,0 C -3,3 C 0,0 UV-I 0,0 C 41 % 88 % 0 % 1001,5 hPa 0,0 l/m 0,0 km/h (0 Bft) 0 min 0,0 km/h (0 Bft)
06.01.2010 18:50 9,0 C -3,4 C 0,0 UV-I 0,0 C 41 % 88 % 0 % 1001,5 hPa 0,0 l/m 0,0 km/h (0 Bft) 0 min 0,0 km/h (0 Bft)
06.01.2010 18:52 9,0 C -3,3 C 0,0 UV-I 0,0 C 41 % 88 % 0 % 1001,5 hPa 0,0 l/m 0,0 km/h (0 Bft) 0 min 0,0 km/h (0 Bft)
06.01.2010 18:54 9,0 C -3,3 C 0,0 UV-I 0,0 C 41 % 88 % 0 % 1001,8 hPa 0,0 l/m 0,0 km/h (0 Bft) 0 min 0,0 km/h (0 Bft)
06.01.2010 18:56 9,0 C -3,5 C 0,0 UV-I 0,0 C 41 % 88 % 0 % 1001,8 hPa 0,0 l/m 0,0 km/h (0 Bft) 0 min 0,0 km/h (0 Bft)
06.01.2010 18:58 9,0 C -3,5 C 0,0 UV-I 0,0 C 41 % 88 % 0 % 1001,8 hPa 0,0 l/m 0,0 km/h (0 Bft) 0 min 0,0 km/h (0 Bft)
06.01.2010 19:00 9,0 C -3,6 C 0,0 UV-I 0,0 C 41 % 88 % 0 % 1001,8 hPa 0,0 l/m 0,0 km/h (0 Bft) 0 min 0,0 km/h (0 Bft)
06.01.2010 19:02 9,0 C -3,6 C 0,0 UV-I 0,0 C 41 % 88 % 0 % 1001,8 hPa 0,0 l/m 0,0 km/h (0 Bft) 0 min 0,0 km/h (0 Bft)
06.01.2010 19:08 8,8 C -3,7 C 0,0 UV-I 0,0 C 41 % 88 % 0 % 1001,8 hPa 0,0 l/m 0,0 km/h (0 Bft) 0 min 0,0 km/h (0 Bft)
06.01.2010 19:10 8,8 C -3,7 C 0,0 UV-I 0,0 C 41 % 88 % 0 % 1001,8 hPa 0,0 l/m 0,0 km/h (0 Bft) 0 min 0,0 km/h (0 Bft)
06.01.2010 19:12 8,8 C -3,8 C 0,0 UV-I 0,0 C 41 % 88 % 0 % 1001,8 hPa 0,0 l/m 0,0 km/h (0 Bft) 0 min 0,0 km/h (0 Bft)
06.01.2010 19:14 8,8 C -3,7 C 0,0 UV-I 0,0 C 41 % 88 % 0 % 1001,5 hPa 0,0 l/m 0,0 km/h (0 Bft) 0 min 0,0 km/h (0 Bft)
06.01.2010 19:16 8,8 C -3,7 C 0,0 UV-I 0,0 C 41 % 88 % 0 % 1001,5 hPa 0,0 l/m 0,0 km/h (0 Bft) 0 min 0,0 km/h (0 Bft)
06.01.2010 19:18 8,8 C -3,9 C 0,0 UV-I 0,0 C 41 % 88 % 0 % 1001,5 hPa 0,0 l/m 0,0 km/h (0 Bft) 0 min 0,0 km/h (0 Bft)
06.01.2010 19:24 8,8 C -3,9 C 0,0 UV-I 0,0 C 41 % 88 % 0 % 1001,5 hPa 0,0 l/m 0,0 km/h (0 Bft) 0 min 0,0 km/h (0 Bft)
06.01.2010 19:26 8,9 C -3,9 C 0,0 UV-I 0,0 C 41 % 88 % 0 % 1001,5 hPa 0,0 l/m 0,0 km/h (0 Bft) 0 min 0,0 km/h (0 Bft)
06.01.2010 19:28 8,8 C -3,9 C 0,0 UV-I 0,0 C 41 % 88 % 0 % 1001,5 hPa 0,0 l/m 0,0 km/h (0 Bft) 0 min 0,0 km/h (0 Bft)
06.01.2010 19:30 8,9 C -3,9 C 0,0 UV-I 0,0 C 41 % 88 % 0 % 1001,5 hPa 0,0 l/m 0,0 km/h (0 Bft) 0 min 0,0 km/h (0 Bft)
06.01.2010 19:32 8,8 C -3,9 C 0,0 UV-I 0,0 C 41 % 88 % 0 % 1001,5 hPa 0,0 l/m 0,0 km/h (0 Bft) 0 min 0,0 km/h (0 Bft)
06.01.2010 19:34 8,9 C -3,9 C 0,0 UV-I 0,0 C 41 % 89 % 0 % 1001,8 hPa 0,0 l/m 0,0 km/h (0 Bft) 0 min 0,0 km/h (0 Bft)
06.01.2010 19:36 8,8 C -3,9 C 0,0 UV-I 0,0 C 41 % 89 % 0 % 1001,8 hPa 0,0 l/m 0,0 km/h (0 Bft) 0 min 0,0 km/h (0 Bft)
06.01.2010 19:38 8,9 C -3,9 C 0,0 UV-I 0,0 C 41 % 89 % 0 % 1001,8 hPa 0,0 l/m 0,0 km/h (0 Bft) 0 min 0,0 km/h (0 Bft)
06.01.2010 19:42 8,8 C -3,9 C 0,0 UV-I 0,0 C 41 % 89 % 0 % 1001,8 hPa 0,0 l/m 0,0 km/h (0 Bft) 0 min 0,0 km/h (0 Bft)
06.01.2010 19:44 8,8 C -4,0 C 0,0 UV-I 0,0 C 41 % 89 % 0 % 1001,8 hPa 0,0 l/m 0,0 km/h (0 Bft) 0 min 0,0 km/h (0 Bft)
06.01.2010 19:46 8,8 C -4,0 C 0,0 UV-I 0,0 C 41 % 89 % 0 % 1001,8 hPa 0,0 l/m 0,0 km/h (0 Bft) 0 min 0,0 km/h (0 Bft)
06.01.2010 19:48 8,8 C -4,0 C 0,0 UV-I 0,0 C 41 % 89 % 0 % 1001,8 hPa 0,0 l/m 0,0 km/h (0 Bft) 0 min 0,0 km/h (0 Bft)
06.01.2010 19:52 8,8 C -4,0 C 0,0 UV-I 0,0 C 41 % 89 % 0 % 1001,8 hPa 0,0 l/m 0,0 km/h (0 Bft) 0 min 0,0 km/h (0 Bft)
06.01.2010 19:54 8,8 C -4,0 C 0,0 UV-I 0,0 C 41 % 89 % 0 % 1001,9 hPa 0,0 l/m 0,0 km/h (0 Bft) 0 min 0,0 km/h (0 Bft)
06.01.2010 19:56 8,8 C -4,0 C 0,0 UV-I 0,0 C 41 % 89 % 0 % 1001,9 hPa 0,0 l/m 0,0 km/h (0 Bft) 0 min 0,0 km/h (0 Bft)
06.01.2010 19:58 8,8 C -4,0 C 0,0 UV-I 0,0 C 41 % 89 % 0 % 1001,9 hPa 0,0 l/m 0,0 km/h (0 Bft) 0 min 0,0 km/h (0 Bft)
06.01.2010 20:00 8,9 C -4,0 C 0,0 UV-I 0,0 C 41 % 89 % 0 % 1001,9 hPa 0,0 l/m 0,0 km/h (0 Bft) 0 min 0,0 km/h (0 Bft)
06.01.2010 20:02 8,8 C -4,0 C 0,0 UV-I 0,0 C 41 % 90 % 0 % 1001,9 hPa 0,0 l/m 0,0 km/h (0 Bft) 0 min 0,0 km/h (0 Bft)
06.01.2010 20:04 8,8 C -4,0 C 0,0 UV-I 0,0 C 41 % 90 % 0 % 1001,9 hPa 0,0 l/m 0,0 km/h (0 Bft) 0 min 0,0 km/h (0 Bft)
06.01.2010 20:06 8,8 C -4,0 C 0,0 UV-I 0,0 C 41 % 90 % 0 % 1001,9 hPa 0,0 l/m 0,0 km/h (0 Bft) 0 min 0,0 km/h (0 Bft)
06.01.2010 20:08 8,8 C -3,9 C 0,0 UV-I 0,0 C 41 % 90 % 0 % 1001,9 hPa 0,0 l/m 0,0 km/h (0 Bft) 0 min 0,0 km/h (0 Bft)
06.01.2010 20:10 8,8 C -3,9 C 0,0 UV-I 0,0 C 41 % 90 % 0 % 1001,9 hPa 0,0 l/m 0,2 km/h (0 Bft) 0 min 0,0 km/h (0 Bft)
06.01.2010 20:12 8,8 C -4,0 C 0,0 UV-I 0,0 C 41 % 90 % 0 % 1001,9 hPa 0,0 l/m 0,2 km/h (0 Bft) 0 min 0,0 km/h (0 Bft)
06.01.2010 20:14 8,8 C -4,0 C 0,0 UV-I 0,0 C 41 % 90 % 0 % 1002,0 hPa 0,0 l/m 0,2 km/h (0 Bft) 0 min 0,0 km/h (0 Bft)
06.01.2010 20:16 8,8 C -4,0 C 0,0 UV-I 0,0 C 41 % 90 % 0 % 1002,0 hPa 0,0 l/m 0,2 km/h (0 Bft) 0 min 0,0 km/h (0 Bft)
06.01.2010 20:18 8,8 C -3,9 C 0,0 UV-I 0,0 C 41 % 90 % 0 % 1002,0 hPa 0,0 l/m 0,2 km/h (0 Bft) 0 min 0,0 km/h (0 Bft)
06.01.2010 20:20 8,8 C -4,1 C 0,0 UV-I 0,0 C 41 % 90 % 0 % 1002,0 hPa 0,0 l/m 0,2 km/h (0 Bft) 0 min 0,0 km/h (0 Bft)
06.01.2010 20:24 8,8 C -4,1 C 0,0 UV-I 0,0 C 41 % 90 % 0 % 1002,0 hPa 0,0 l/m 0,0 km/h (0 Bft) 0 min 0,0 km/h (0 Bft)
06.01.2010 20:26 8,8 C -4,1 C 0,0 UV-I 0,0 C 41 % 90 % 0 % 1002,0 hPa 0,0 l/m 0,0 km/h (0 Bft) 0 min 0,0 km/h (0 Bft)
06.01.2010 20:28 8,8 C -4,1 C 0,0 UV-I 0,0 C 41 % 90 % 0 % 1002,0 hPa 0,0 l/m 0,0 km/h (0 Bft) 0 min 0,0 km/h (0 Bft)
06.01.2010 20:30 8,8 C -4,1 C 0,0 UV-I 0,0 C 41 % 90 % 0 % 1002,0 hPa 0,0 l/m 0,0 km/h (0 Bft) 0 min 0,0 km/h (0 Bft)
06.01.2010 20:32 8,8 C -4,1 C 0,0 UV-I 0,0 C 41 % 90 % 0 % 1002,0 hPa 0,0 l/m 0,0 km/h (0 Bft) 0 min 0,0 km/h (0 Bft)
06.01.2010 20:34 8,8 C -4,2 C 0,0 UV-I 0,0 C 41 % 89 % 0 % 1002,4 hPa 0,0 l/m 0,0 km/h (0 Bft) 0 min 0,0 km/h (0 Bft)
06.01.2010 20:36 8,8 C -4,1 C 0,0 UV-I 0,0 C 41 % 90 % 0 % 1002,4 hPa 0,0 l/m 0,0 km/h (0 Bft) 0 min 0,0 km/h (0 Bft)
06.01.2010 20:38 8,8 C -4,1 C 0,0 UV-I 0,0 C 41 % 90 % 0 % 1002,4 hPa 0,0 l/m 0,0 km/h (0 Bft) 0 min 0,0 km/h (0 Bft)
06.01.2010 20:40 8,8 C -4,1 C 0,0 UV-I 0,0 C 41 % 90 % 0 % 1002,4 hPa 0,0 l/m 0,0 km/h (0 Bft) 0 min 0,0 km/h (0 Bft)
06.01.2010 20:46 8,8 C -4,3 C 0,0 UV-I 0,0 C 41 % 89 % 0 % 1002,4 hPa 0,0 l/m 0,0 km/h (0 Bft) 0 min 0,0 km/h (0 Bft)
06.01.2010 20:48 8,8 C -4,3 C 0,0 UV-I 0,0 C 41 % 89 % 0 % 1002,4 hPa 0,0 l/m 0,0 km/h (0 Bft) 0 min 0,0 km/h (0 Bft)
06.01.2010 20:52 8,8 C -4,4 C 0,0 UV-I 0,0 C 41 % 89 % 0 % 1002,4 hPa 0,0 l/m 0,0 km/h (0 Bft) 0 min 0,0 km/h (0 Bft)
06.01.2010 20:54 8,8 C -4,5 C 0,0 UV-I 0,0 C 41 % 89 % 0 % 1002,3 hPa 0,0 l/m 0,0 km/h (0 Bft) 0 min 0,0 km/h (0 Bft)
06.01.2010 20:56 8,8 C -4,5 C 0,0 UV-I 0,0 C 41 % 89 % 0 % 1002,3 hPa 0,0 l/m 0,0 km/h (0 Bft) 0 min 0,0 km/h (0 Bft)
06.01.2010 20:58 8,8 C -4,5 C 0,0 UV-I 0,0 C 41 % 89 % 0 % 1002,3 hPa 0,0 l/m 0,0 km/h (0 Bft) 0 min 0,0 km/h (0 Bft)
06.01.2010 21:00 8,8 C -4,5 C 0,0 UV-I 0,0 C 41 % 89 % 0 % 1002,3 hPa 0,0 l/m 0,0 km/h (0 Bft) 0 min 0,0 km/h (0 Bft)
06.01.2010 21:02 8,8 C -4,5 C 0,0 UV-I 0,0 C 41 % 89 % 0 % 1002,3 hPa 0,0 l/m 0,0 km/h (0 Bft) 0 min 0,0 km/h (0 Bft)
06.01.2010 21:04 8,8 C -4,5 C 0,0 UV-I 0,0 C 41 % 89 % 0 % 1002,3 hPa 0,0 l/m 0,0 km/h (0 Bft) 0 min 0,0 km/h (0 Bft)
06.01.2010 21:06 8,8 C -4,5 C 0,0 UV-I 0,0 C 41 % 90 % 0 % 1002,3 hPa 0,0 l/m 0,0 km/h (0 Bft) 0 min 0,0 km/h (0 Bft)
06.01.2010 21:08 8,8 C -4,5 C 0,0 UV-I 0,0 C 41 % 90 % 0 % 1002,3 hPa 0,0 l/m 0,0 km/h (0 Bft) 0 min 0,0 km/h (0 Bft)
06.01.2010 21:10 8,8 C -4,5 C 0,0 UV-I 0,0 C 41 % 90 % 0 % 1002,3 hPa 0,0 l/m 0,0 km/h (0 Bft) 0 min 0,0 km/h (0 Bft)
06.01.2010 21:18 8,8 C -4,5 C 0,0 UV-I 0,0 C 41 % 90 % 0 % 1002,6 hPa 0,0 l/m 0,0 km/h (0 Bft) 0 min 0,0 km/h (0 Bft)
06.01.2010 21:20 8,8 C -4,5 C 0,0 UV-I 0,0 C 41 % 90 % 0 % 1002,6 hPa 0,0 l/m 0,0 km/h (0 Bft) 0 min 0,0 km/h (0 Bft)
06.01.2010 21:22 8,8 C -4,5 C 0,0 UV-I 0,0 C 41 % 90 % 0 % 1002,6 hPa 0,0 l/m 0,0 km/h (0 Bft) 0 min 0,0 km/h (0 Bft)
06.01.2010 21:24 8,8 C -4,5 C 0,0 UV-I 0,0 C 41 % 90 % 0 % 1002,6 hPa 0,0 l/m 0,0 km/h (0 Bft) 0 min 0,0 km/h (0 Bft)
06.01.2010 21:26 8,8 C -4,5 C 0,0 UV-I 0,0 C 41 % 90 % 0 % 1002,6 hPa 0,0 l/m 0,0 km/h (0 Bft) 0 min 0,0 km/h (0 Bft)
06.01.2010 21:28 8,8 C -4,5 C 0,0 UV-I 0,0 C 41 % 90 % 0 % 1002,6 hPa 0,0 l/m 0,0 km/h (0 Bft) 0 min 0,0 km/h (0 Bft)
06.01.2010 21:34 8,8 C -4,5 C 0,0 UV-I 0,0 C 41 % 91 % 0 % 1002,6 hPa 0,0 l/m 0,0 km/h (0 Bft) 0 min 0,0 km/h (0 Bft)
06.01.2010 21:36 8,8 C -4,5 C 0,0 UV-I 0,0 C 41 % 91 % 0 % 1002,6 hPa 0,0 l/m 0,0 km/h (0 Bft) 0 min 0,0 km/h (0 Bft)
06.01.2010 21:38 8,8 C -4,5 C 0,0 UV-I 0,0 C 41 % 91 % 0 % 1002,6 hPa 0,0 l/m 0,0 km/h (0 Bft) 0 min 0,0 km/h (0 Bft)
06.01.2010 21:40 8,8 C -4,5 C 0,0 UV-I 0,0 C 41 % 91 % 0 % 1002,6 hPa 0,0 l/m 0,0 km/h (0 Bft) 0 min 0,0 km/h (0 Bft)
06.01.2010 21:42 8,8 C -4,6 C 0,0 UV-I 0,0 C 41 % 91 % 0 % 1002,6 hPa 0,0 l/m 0,0 km/h (0 Bft) 0 min 0,0 km/h (0 Bft)
06.01.2010 21:44 8,8 C -4,6 C 0,0 UV-I 0,0 C 41 % 91 % 0 % 1002,6 hPa 0,0 l/m 0,0 km/h (0 Bft) 0 min 0,0 km/h (0 Bft)
06.01.2010 21:46 8,8 C -4,5 C 0,0 UV-I 0,0 C 41 % 91 % 0 % 1002,6 hPa 0,0 l/m 0,0 km/h (0 Bft) 0 min 0,0 km/h (0 Bft)
06.01.2010 21:50 8,8 C -4,5 C 0,0 UV-I 0,0 C 41 % 91 % 0 % 1002,6 hPa 0,0 l/m 0,0 km/h (0 Bft) 0 min 0,0 km/h (0 Bft)
06.01.2010 21:52 8,8 C -4,5 C 0,0 UV-I 0,0 C 41 % 91 % 0 % 1002,6 hPa 0,0 l/m 0,0 km/h (0 Bft) 0 min 0,0 km/h (0 Bft)
06.01.2010 21:54 8,8 C -4,7 C 0,0 UV-I 0,0 C 41 % 91 % 0 % 1002,6 hPa 0,0 l/m 0,0 km/h (0 Bft) 0 min 0,0 km/h (0 Bft)
06.01.2010 21:56 8,8 C -4,5 C 0,0 UV-I 0,0 C 41 % 91 % 0 % 1002,6 hPa 0,0 l/m 0,0 km/h (0 Bft) 0 min 0,0 km/h (0 Bft)
06.01.2010 21:58 8,8 C -4,7 C 0,0 UV-I 0,0 C 41 % 91 % 0 % 1002,6 hPa 0,0 l/m 0,0 km/h (0 Bft) 0 min 0,0 km/h (0 Bft)
06.01.2010 22:00 8,6 C -4,7 C 0,0 UV-I 0,0 C 41 % 91 % 0 % 1002,6 hPa 0,0 l/m 0,0 km/h (0 Bft) 0 min 0,0 km/h (0 Bft)
06.01.2010 22:02 8,8 C -4,7 C 0,0 UV-I 0,0 C 41 % 91 % 0 % 1002,6 hPa 0,0 l/m 0,0 km/h (0 Bft) 0 min 0,0 km/h (0 Bft)
06.01.2010 22:04 8,8 C -4,7 C 0,0 UV-I 0,0 C 41 % 91 % 0 % 1002,6 hPa 0,0 l/m 0,0 km/h (0 Bft) 0 min 0,0 km/h (0 Bft)
06.01.2010 22:08 8,8 C -4,7 C 0,0 UV-I 0,0 C 41 % 91 % 0 % 1002,6 hPa 0,0 l/m 0,0 km/h (0 Bft) 0 min 0,0 km/h (0 Bft)
06.01.2010 22:10 8,8 C -4,7 C 0,0 UV-I 0,0 C 41 % 91 % 0 % 1002,6 hPa 0,0 l/m 0,0 km/h (0 Bft) 0 min 0,0 km/h (0 Bft)
06.01.2010 22:12 8,6 C -4,7 C 0,0 UV-I 0,0 C 41 % 91 % 0 % 1002,6 hPa 0,0 l/m 0,0 km/h (0 Bft) 0 min 0,0 km/h (0 Bft)
06.01.2010 22:16 8,8 C -4,7 C 0,0 UV-I 0,0 C 41 % 91 % 0 % 1002,6 hPa 0,0 l/m 0,0 km/h (0 Bft) 0 min 0,0 km/h (0 Bft)
06.01.2010 22:18 8,8 C -4,7 C 0,0 UV-I 0,0 C 41 % 91 % 0 % 1002,6 hPa 0,0 l/m 0,0 km/h (0 Bft) 0 min 0,0 km/h (0 Bft)
06.01.2010 22:20 8,8 C -4,7 C 0,0 UV-I 0,0 C 41 % 91 % 0 % 1002,6 hPa 0,0 l/m 0,0 km/h (0 Bft) 0 min 0,0 km/h (0 Bft)
06.01.2010 22:22 8,8 C -4,7 C 0,0 UV-I 0,0 C 41 % 91 % 0 % 1002,6 hPa 0,0 l/m 0,0 km/h (0 Bft) 0 min 0,0 km/h (0 Bft)
06.01.2010 22:26 8,6 C -4,7 C 0,0 UV-I 0,0 C 41 % 91 % 0 % 1002,6 hPa 0,0 l/m 0,0 km/h (0 Bft) 0 min 0,0 km/h (0 Bft)
06.01.2010 22:28 8,8 C -4,7 C 0,0 UV-I 0,0 C 41 % 91 % 0 % 1002,6 hPa 0,0 l/m 0,0 km/h (0 Bft) 0 min 0,0 km/h (0 Bft)
06.01.2010 22:30 8,8 C -4,7 C 0,0 UV-I 0,0 C 41 % 91 % 0 % 1002,6 hPa 0,0 l/m 0,0 km/h (0 Bft) 0 min 0,0 km/h (0 Bft)
06.01.2010 22:32 8,8 C -4,7 C 0,0 UV-I 0,0 C 41 % 91 % 0 % 1002,6 hPa 0,0 l/m 0,0 km/h (0 Bft) 0 min 0,0 km/h (0 Bft)
06.01.2010 22:34 8,6 C -4,7 C 0,0 UV-I 0,0 C 41 % 91 % 0 % 1002,9 hPa 0,0 l/m 0,0 km/h (0 Bft) 0 min 0,0 km/h (0 Bft)
06.01.2010 22:36 8,6 C -4,7 C 0,0 UV-I 0,0 C 41 % 91 % 0 % 1002,9 hPa 0,0 l/m 0,0 km/h (0 Bft) 0 min 0,0 km/h (0 Bft)
06.01.2010 22:38 8,6 C -4,7 C 0,0 UV-I 0,0 C 41 % 91 % 0 % 1002,9 hPa 0,0 l/m 0,0 km/h (0 Bft) 0 min 0,0 km/h (0 Bft)
06.01.2010 22:42 8,6 C -4,7 C 0,0 UV-I 0,0 C 41 % 91 % 0 % 1002,9 hPa 0,0 l/m 0,0 km/h (0 Bft) 0 min 0,0 km/h (0 Bft)
06.01.2010 22:44 8,6 C -4,7 C 0,0 UV-I 0,0 C 41 % 91 % 0 % 1002,9 hPa 0,0 l/m 0,0 km/h (0 Bft) 0 min 0,0 km/h (0 Bft)
06.01.2010 22:46 8,7 C -4,7 C 0,0 UV-I 0,0 C 41 % 91 % 0 % 1002,9 hPa 0,0 l/m 0,0 km/h (0 Bft) 0 min 0,0 km/h (0 Bft)
06.01.2010 22:48 8,6 C -4,7 C 0,0 UV-I 0,0 C 41 % 91 % 0 % 1002,9 hPa 0,0 l/m 0,0 km/h (0 Bft) 0 min 0,0 km/h (0 Bft)
06.01.2010 22:50 8,6 C -4,7 C 0,0 UV-I 0,0 C 41 % 91 % 0 % 1002,9 hPa 0,0 l/m 0,0 km/h (0 Bft) 0 min 0,0 km/h (0 Bft)
06.01.2010 22:52 8,8 C -4,7 C 0,0 UV-I 0,0 C 41 % 91 % 0 % 1002,9 hPa 0,0 l/m 0,0 km/h (0 Bft) 0 min 0,0 km/h (0 Bft)
06.01.2010 22:54 8,6 C -4,7 C 0,0 UV-I 0,0 C 41 % 92 % 0 % 1003,0 hPa 0,0 l/m 0,0 km/h (0 Bft) 0 min 0,0 km/h (0 Bft)
06.01.2010 22:56 8,6 C -4,5 C 0,0 UV-I 0,0 C 41 % 92 % 0 % 1003,0 hPa 0,0 l/m 0,0 km/h (0 Bft) 0 min 2,4 km/h (1 Bft)
06.01.2010 23:00 8,7 C -4,5 C 0,0 UV-I 0,0 C 41 % 92 % 0 % 1003,0 hPa 0,0 l/m 0,2 km/h (0 Bft) 0 min 0,0 km/h (0 Bft)
06.01.2010 23:02 8,7 C -4,6 C 0,0 UV-I 0,0 C 41 % 92 % 0 % 1003,0 hPa 0,0 l/m 0,2 km/h (0 Bft) 0 min 0,0 km/h (0 Bft)
06.01.2010 23:04 8,7 C -4,6 C 0,0 UV-I 0,0 C 41 % 92 % 0 % 1003,0 hPa 0,0 l/m 0,2 km/h (0 Bft) 0 min 0,0 km/h (0 Bft)
06.01.2010 23:06 8,7 C -4,6 C 0,0 UV-I 0,0 C 41 % 92 % 0 % 1003,0 hPa 0,0 l/m 0,2 km/h (0 Bft) 0 min 0,0 km/h (0 Bft)
06.01.2010 23:08 8,7 C -4,6 C 0,0 UV-I 0,0 C 41 % 92 % 0 % 1003,0 hPa 0,0 l/m 0,0 km/h (0 Bft) 0 min 0,0 km/h (0 Bft)
06.01.2010 23:10 8,7 C -4,5 C 0,0 UV-I 0,0 C 42 % 92 % 0 % 1003,0 hPa 0,0 l/m 0,0 km/h (0 Bft) 0 min 0,0 km/h (0 Bft)
06.01.2010 23:12 8,7 C -4,5 C 0,0 UV-I 0,0 C 41 % 92 % 0 % 1003,0 hPa 0,0 l/m 0,0 km/h (0 Bft) 0 min 0,0 km/h (0 Bft)
06.01.2010 23:14 8,7 C -4,5 C 0,0 UV-I 0,0 C 41 % 92 % 0 % 1003,2 hPa 0,0 l/m 0,0 km/h (0 Bft) 0 min 0,0 km/h (0 Bft)
06.01.2010 23:16 8,6 C -4,5 C 0,0 UV-I 0,0 C 41 % 92 % 0 % 1003,2 hPa 0,0 l/m 0,0 km/h (0 Bft) 0 min 0,0 km/h (0 Bft)
06.01.2010 23:18 8,6 C -4,5 C 0,0 UV-I 0,0 C 41 % 92 % 0 % 1003,2 hPa 0,0 l/m 0,0 km/h (0 Bft) 0 min 0,0 km/h (0 Bft)
06.01.2010 23:20 8,7 C -4,5 C 0,0 UV-I 0,0 C 42 % 92 % 0 % 1003,2 hPa 0,0 l/m 0,0 km/h (0 Bft) 0 min 0,0 km/h (0 Bft)
06.01.2010 23:22 8,6 C -4,5 C 0,0 UV-I 0,0 C 42 % 92 % 0 % 1003,2 hPa 0,0 l/m 0,0 km/h (0 Bft) 0 min 0,0 km/h (0 Bft)
06.01.2010 23:24 8,6 C -4,5 C 0,0 UV-I 0,0 C 42 % 92 % 0 % 1003,2 hPa 0,0 l/m 0,0 km/h (0 Bft) 0 min 0,0 km/h (0 Bft)
06.01.2010 23:30 8,8 C -4,5 C 0,0 UV-I 0,0 C 42 % 92 % 0 % 1003,2 hPa 0,0 l/m 0,0 km/h (0 Bft) 0 min 0,0 km/h (0 Bft)
06.01.2010 23:32 8,6 C -4,5 C 0,0 UV-I 0,0 C 42 % 92 % 0 % 1003,2 hPa 0,0 l/m 0,0 km/h (0 Bft) 0 min 0,0 km/h (0 Bft)
06.01.2010 23:36 8,6 C -4,3 C 0,0 UV-I 0,0 C 42 % 92 % 0 % 1003,1 hPa 0,0 l/m 0,0 km/h (0 Bft) 0 min 0,0 km/h (0 Bft)
06.01.2010 23:38 8,6 C -4,4 C 0,0 UV-I 0,0 C 42 % 92 % 0 % 1003,1 hPa 0,0 l/m 0,0 km/h (0 Bft) 0 min 0,0 km/h (0 Bft)
06.01.2010 23:40 8,6 C -4,4 C 0,0 UV-I 0,0 C 42 % 92 % 0 % 1003,1 hPa 0,0 l/m 0,0 km/h (0 Bft) 0 min 0,0 km/h (0 Bft)
06.01.2010 23:42 8,6 C -4,4 C 0,0 UV-I 0,0 C 42 % 92 % 0 % 1003,1 hPa 0,0 l/m 0,0 km/h (0 Bft) 0 min 0,0 km/h (0 Bft)
06.01.2010 23:44 8,6 C -4,3 C 0,0 UV-I 0,0 C 42 % 92 % 0 % 1003,1 hPa 0,0 l/m 0,0 km/h (0 Bft) 0 min 0,0 km/h (0 Bft)
06.01.2010 23:46 8,6 C -4,3 C 0,0 UV-I 0,0 C 42 % 92 % 0 % 1003,1 hPa 0,0 l/m 0,0 km/h (0 Bft) 0 min 0,0 km/h (0 Bft)
06.01.2010 23:50 8,6 C -4,3 C 0,0 UV-I 0,0 C 42 % 92 % 0 % 1003,1 hPa 0,0 l/m 0,0 km/h (0 Bft) 0 min 0,0 km/h (0 Bft)
06.01.2010 23:52 8,8 C -4,1 C 0,0 UV-I 0,0 C 42 % 92 % 0 % 1003,1 hPa 0,0 l/m 0,0 km/h (0 Bft) 0 min 0,0 km/h (0 Bft)
06.01.2010 23:54 8,6 C -4,1 C 0,0 UV-I 0,0 C 42 % 92 % 0 % 1002,9 hPa 0,0 l/m 0,0 km/h (0 Bft) 0 min 0,0 km/h (0 Bft)
06.01.2010 23:56 8,8 C -4,1 C 0,0 UV-I 0,0 C 42 % 93 % 0 % 1002,9 hPa 0,0 l/m 0,0 km/h (0 Bft) 0 min 0,0 km/h (0 Bft)
06.01.2010 23:58 8,8 C -4,1 C 0,0 UV-I 0,0 C 42 % 93 % 0 % 1002,9 hPa 0,0 l/m 0,0 km/h (0 Bft) 0 min 0,0 km/h (0 Bft)
_ Min-Zeit 08:48 09:56 00:00 00:00 13:36 14:02 00:00 06:14 - 01:18 - 00:08
Minimum _ 8,4 C -6,8 C 0,0 UV-I 0,0 C 38 % 81 % 0 % 999,6 hPa - 0,0 km/h (0 Bft) - 0,0 km/h (0 Bft)
_ Max-Zeit 13:40 15:30 11:00 11:00 00:00 23:56 10:32 23:14 00:00 11:24 10:26 07:44
Maximum _ 9,5 C -1,1 C 0,1 UV-I 9,0 C 43 % 93 % 100 % 1003,2 hPa 0,0 l/m 5,1 km/h
S (1 Bft)
2 min 12,3 km/h
S (3 Bft)
Durchschnitt _ 8,9 C -4,2 C 0,0 UV-I 0,5 C 40 % 88 % 10 % 1001,1 hPa #0,0 l/m 0,6 km/h (0 Bft) #1:24 h 1,1 km/h (0 Bft)
© 2012 W. Hausmann